Darstellungsparameter: Aktuell verwendete Einstellungen:
Skalierung der Graphiken ... ?
xyx+y,   Skalierungsfaktor:      Skalierung: Modus: x, Faktor: 1
Darstellungszeitraum ... ?
Vom - - bis: - -   Zeitraum: 01.01.2021 - 05.01.2021
Min/Max/Avg-Anzeige ... ?
Zeige MMA aktuell
Zeige MMA Monat
Zeige MMA alles
Zeige --A aktuell
Zeige --A Monat
Zeige --A alles
Keine MMA-Anzeige
MMA:
Average (ber die Originaldaten)
MMA-Basis: 01.01.2021 - 05.01.2021
Quicknavigation für Darstellung... ?
Tage:      1T, 2T, 3T, 5T -1T -2T -3T -5T +1T +2T +3T +5T
Wochen: 1W, 2W, 3W -1W -2W -3W +1W +2W +3W
Monate: 1M, 3M, 6M -1M -3M -6M +1M +3M +6M
Jahre:    1J, 3J, 5J, 10J -1J -3J -5J -10J +1J +3J +5J +10J
Nutze für die Darstellung ... ?
Originaldaten oder Mittelwerte auf ...
Stundenbasis Tagesbasis Wochenbasis
Monatsbasis Jahresbasis      Datenbasis: Original-Daten
Darstellen als:
Statistik (Auto) Statistik J:M      Darstellung:
Zur Graphik,    zurück zur Übersicht aller Sensoren.
 
Tabellarische Datenbersicht: ?
 
Sensor: Nr:Datum:Temp:Abs-Feuchte:Windchill:Wind:
Aussen-T/F 1 01-01-2021 00:00:00 1.1 C 4.96 g/m*3 1.1 C 0 km/h
2 01-01-2021 00:05:00 1.1 C 4.96 g/m*3 1.1 C 0 km/h
3 01-01-2021 00:10:00 1.1 C 5.02 g/m*3 1.1 C 0 km/h
4 01-01-2021 00:15:00 1.1 C 5.02 g/m*3 1.1 C 0 km/h
5 01-01-2021 00:20:00 1.1 C 5.02 g/m*3 1.1 C 0 km/h
6 01-01-2021 00:25:00 1.1 C 5.02 g/m*3 1.1 C 0 km/h
7 01-01-2021 00:30:00 1.1 C 5.02 g/m*3 1.1 C 0 km/h
8 01-01-2021 00:35:00 1.1 C 5.02 g/m*3 1.1 C 0 km/h
9 01-01-2021 00:40:00 1.1 C 5.02 g/m*3 1.1 C 0 km/h
10 01-01-2021 00:45:00 1.1 C 5.02 g/m*3 1.1 C 0 km/h
11 01-01-2021 00:50:00 1.1 C 5.02 g/m*3 1.1 C 0 km/h
12 01-01-2021 00:55:00 1.1 C 5.02 g/m*3 1.1 C 0 km/h
13 01-01-2021 01:00:00 1.1 C 5.02 g/m*3 1.1 C 0 km/h
14 01-01-2021 01:05:00 1.1 C 5.02 g/m*3 1.1 C 0 km/h
15 01-01-2021 01:10:00 1.1 C 5.02 g/m*3 1.1 C 0 km/h
16 01-01-2021 01:15:00 1.1 C 5.02 g/m*3 1.1 C 0 km/h
17 01-01-2021 01:20:00 1.2 C 5.05 g/m*3 1.2 C 0 km/h
18 01-01-2021 01:25:00 1.2 C 5.05 g/m*3 1.2 C 0 km/h
19 01-01-2021 01:30:00 1.2 C 5.05 g/m*3 1.2 C 0 km/h
20 01-01-2021 01:35:00 1.2 C 5.05 g/m*3 1.2 C 0 km/h
21 01-01-2021 01:40:00 1.2 C 5.05 g/m*3 1.2 C 0 km/h
22 01-01-2021 01:45:00 1.2 C 5.05 g/m*3 1.2 C 0 km/h
23 01-01-2021 01:50:00 1.2 C 5.05 g/m*3 1.2 C 0 km/h
24 01-01-2021 01:55:00 1.2 C 5.05 g/m*3 1.2 C 0 km/h
25 01-01-2021 02:00:00 1.3 C 5.09 g/m*3 1.3 C 0 km/h
Sensor: Nr:Datum:Temp:Abs-Feuchte:Windchill:Wind:
Aussen-T/F 26 01-01-2021 02:05:00 1.3 C 5.09 g/m*3 1.3 C 0 km/h
27 01-01-2021 02:10:00 1.3 C 5.09 g/m*3 1.3 C 0 km/h
28 01-01-2021 02:15:00 1.3 C 5.09 g/m*3 1.3 C 0 km/h
29 01-01-2021 02:20:00 1.4 C 5.12 g/m*3 1.4 C 0 km/h
30 01-01-2021 02:25:00 1.4 C 5.12 g/m*3 1.4 C 0 km/h
31 01-01-2021 02:30:00 1.4 C 5.12 g/m*3 1.4 C 0 km/h
32 01-01-2021 02:35:00 1.4 C 5.12 g/m*3 1.4 C 0 km/h
33 01-01-2021 02:40:00 1.5 C 5.16 g/m*3 1.5 C 0 km/h
34 01-01-2021 02:45:00 1.6 C 5.19 g/m*3 1.6 C 0 km/h
35 01-01-2021 02:50:00 1.6 C 5.19 g/m*3 1.6 C 0 km/h
36 01-01-2021 02:55:00 1.6 C 5.19 g/m*3 1.6 C 0 km/h
37 01-01-2021 03:00:00 1.6 C 5.19 g/m*3 1.6 C 0 km/h
38 01-01-2021 03:05:00 1.6 C 5.19 g/m*3 1.6 C 1.6 km/h
39 01-01-2021 03:10:00 1.7 C 5.23 g/m*3 1.7 C 0 km/h
40 01-01-2021 03:15:00 1.7 C 5.23 g/m*3 1.7 C 0 km/h
41 01-01-2021 03:20:00 1.7 C 5.23 g/m*3 1.7 C 0 km/h
42 01-01-2021 03:25:00 1.7 C 5.23 g/m*3 1.7 C 0 km/h
43 01-01-2021 03:30:00 1.7 C 5.23 g/m*3 1.7 C 0 km/h
44 01-01-2021 03:35:00 1.8 C 5.26 g/m*3 1.8 C 0 km/h
45 01-01-2021 03:40:00 1.8 C 5.26 g/m*3 1.8 C 0 km/h
46 01-01-2021 03:45:00 1.8 C 5.32 g/m*3 1.8 C 0 km/h
47 01-01-2021 03:50:00 1.8 C 5.32 g/m*3 1.8 C 0 km/h
48 01-01-2021 03:55:00 1.8 C 5.32 g/m*3 1.8 C 0 km/h
49 01-01-2021 04:00:00 1.8 C 5.32 g/m*3 1.8 C 0 km/h
50 01-01-2021 04:05:00 1.8 C 5.32 g/m*3 1.8 C 0 km/h
Sensor: Nr:Datum:Temp:Abs-Feuchte:Windchill:Wind:
Aussen-T/F 51 01-01-2021 04:10:00 1.9 C 5.35 g/m*3 1.9 C 0 km/h
52 01-01-2021 04:15:00 1.9 C 5.35 g/m*3 1.9 C 0 km/h
53 01-01-2021 04:20:00 1.9 C 5.35 g/m*3 1.9 C 0 km/h
54 01-01-2021 04:25:00 1.9 C 5.35 g/m*3 1.9 C 0 km/h
55 01-01-2021 04:30:00 1.9 C 5.35 g/m*3 1.9 C 4.8 km/h
56 01-01-2021 04:35:00 1.9 C 5.35 g/m*3 1.9 C 4.8 km/h
57 01-01-2021 04:40:00 1.9 C 5.35 g/m*3 1.9 C 3.2 km/h
58 01-01-2021 04:45:00 1.9 C 5.35 g/m*3 1.9 C 3.2 km/h
59 01-01-2021 04:50:00 1.9 C 5.35 g/m*3 1.9 C 0 km/h
60 01-01-2021 04:55:00 1.9 C 5.35 g/m*3 1.9 C 1.6 km/h
61 01-01-2021 05:00:00 2 C 5.39 g/m*3 2 C 0 km/h
62 01-01-2021 05:05:00 2 C 5.39 g/m*3 2 C 0 km/h
63 01-01-2021 05:10:00 2 C 5.39 g/m*3 2 C 4.8 km/h
64 01-01-2021 05:15:00 2 C 5.39 g/m*3 2 C 0 km/h
65 01-01-2021 05:20:00 2 C 5.39 g/m*3 2 C 1.6 km/h
66 01-01-2021 05:25:00 2.1 C 5.43 g/m*3 2.1 C 0 km/h
67 01-01-2021 05:30:00 2.1 C 5.43 g/m*3 2.1 C 0 km/h
68 01-01-2021 05:35:00 2.1 C 5.43 g/m*3 2.1 C 0 km/h
69 01-01-2021 05:40:00 2.1 C 5.43 g/m*3 2.1 C 0 km/h
70 01-01-2021 05:45:00 2.1 C 5.43 g/m*3 2.1 C 0 km/h
71 01-01-2021 05:50:00 2.1 C 5.43 g/m*3 2.1 C 0 km/h
72 01-01-2021 05:55:00 2.1 C 5.43 g/m*3 2.1 C 0 km/h
73 01-01-2021 06:00:00 2.2 C 5.46 g/m*3 2.2 C 0 km/h
74 01-01-2021 06:05:00 2.2 C 5.46 g/m*3 2.2 C 0 km/h
75 01-01-2021 06:10:00 2.2 C 5.46 g/m*3 2.2 C 0 km/h
Sensor: Nr:Datum:Temp:Abs-Feuchte:Windchill:Wind:
Aussen-T/F 76 01-01-2021 06:15:00 2.2 C 5.46 g/m*3 2.2 C 0 km/h
77 01-01-2021 06:20:00 2.2 C 5.46 g/m*3 2.2 C 0 km/h
78 01-01-2021 06:25:00 2.2 C 5.46 g/m*3 2.2 C 0 km/h
79 01-01-2021 06:30:00 2.2 C 5.46 g/m*3 2.2 C 0 km/h
80 01-01-2021 06:35:00 2.3 C 5.5 g/m*3 2.3 C 0 km/h
81 01-01-2021 06:40:00 2.3 C 5.5 g/m*3 2.3 C 0 km/h
82 01-01-2021 06:45:00 2.3 C 5.5 g/m*3 2.3 C 0 km/h
83 01-01-2021 06:50:00 2.3 C 5.5 g/m*3 2.3 C 0 km/h
84 01-01-2021 06:55:00 2.3 C 5.5 g/m*3 2.3 C 0 km/h
85 01-01-2021 07:00:00 2.3 C 5.5 g/m*3 2.3 C 0 km/h
86 01-01-2021 07:05:00 2.3 C 5.5 g/m*3 2.3 C 0 km/h
87 01-01-2021 07:10:00 2.4 C 5.54 g/m*3 2.4 C 0 km/h
88 01-01-2021 07:15:00 2.4 C 5.54 g/m*3 2.4 C 0 km/h
89 01-01-2021 07:20:00 2.4 C 5.54 g/m*3 2.4 C 0 km/h
90 01-01-2021 07:25:00 2.4 C 5.54 g/m*3 2.4 C 0 km/h
91 01-01-2021 07:30:00 2.4 C 5.54 g/m*3 2.4 C 0 km/h
92 01-01-2021 07:35:00 2.5 C 5.58 g/m*3 2.5 C 0 km/h
93 01-01-2021 07:40:00 2.5 C 5.58 g/m*3 2.5 C 0 km/h
94 01-01-2021 07:45:00 2.5 C 5.58 g/m*3 2.5 C 1.6 km/h
95 01-01-2021 07:50:00 2.5 C 5.58 g/m*3 2.5 C 1.6 km/h
96 01-01-2021 07:55:00 2.5 C 5.58 g/m*3 2.5 C 0 km/h
97 01-01-2021 08:00:00 2.5 C 5.58 g/m*3 2.5 C 0 km/h
98 01-01-2021 08:05:00 2.5 C 5.58 g/m*3 2.5 C 0 km/h
99 01-01-2021 08:10:00 2.5 C 5.58 g/m*3 2.5 C 0 km/h
100 01-01-2021 08:15:00 2.5 C 5.58 g/m*3 2.5 C 0 km/h
Sensor: Nr:Datum:Temp:Abs-Feuchte:Windchill:Wind:
Aussen-T/F 101 01-01-2021 08:20:00 2.5 C 5.58 g/m*3 2.5 C 0 km/h
102 01-01-2021 08:25:00 2.5 C 5.58 g/m*3 2.5 C 1.6 km/h
103 01-01-2021 08:30:00 2.5 C 5.58 g/m*3 2.5 C 0 km/h
104 01-01-2021 08:35:00 2.5 C 5.58 g/m*3 2.5 C 0 km/h
105 01-01-2021 08:40:00 2.5 C 5.58 g/m*3 2.5 C 1.6 km/h
106 01-01-2021 08:45:00 2.5 C 5.58 g/m*3 2.5 C 0 km/h
107 01-01-2021 08:50:00 2.5 C 5.58 g/m*3 2.5 C 0 km/h
108 01-01-2021 08:55:00 2.5 C 5.58 g/m*3 2.5 C 0 km/h
109 01-01-2021 09:00:00 2.5 C 5.58 g/m*3 2.5 C 0 km/h
110 01-01-2021 09:05:00 2.5 C 5.58 g/m*3 2.5 C 0 km/h
111 01-01-2021 09:10:00 2.5 C 5.58 g/m*3 2.5 C 0 km/h
112 01-01-2021 09:15:00 2.5 C 5.58 g/m*3 2.5 C 0 km/h
113 01-01-2021 09:20:00 2.5 C 5.58 g/m*3 2.5 C 0 km/h
114 01-01-2021 09:25:00 2.5 C 5.58 g/m*3 2.5 C 0 km/h
115 01-01-2021 09:30:00 2.6 C 5.61 g/m*3 2.6 C 0 km/h
116 01-01-2021 09:35:00 2.6 C 5.61 g/m*3 2.6 C 0 km/h
117 01-01-2021 09:40:00 2.6 C 5.61 g/m*3 2.6 C 0 km/h
118 01-01-2021 09:45:00 2.6 C 5.61 g/m*3 2.6 C 0 km/h
119 01-01-2021 09:50:00 2.6 C 5.61 g/m*3 2.6 C 0 km/h
120 01-01-2021 09:55:00 2.6 C 5.61 g/m*3 2.6 C 0 km/h
121 01-01-2021 10:00:00 2.6 C 5.61 g/m*3 2.6 C 0 km/h
122 01-01-2021 10:05:00 2.7 C 5.65 g/m*3 2.7 C 0 km/h
123 01-01-2021 10:10:00 2.7 C 5.65 g/m*3 2.7 C 0 km/h
124 01-01-2021 10:15:00 2.7 C 5.65 g/m*3 2.7 C 0 km/h
125 01-01-2021 10:20:00 2.7 C 5.65 g/m*3 2.7 C 0 km/h
Sensor: Nr:Datum:Temp:Abs-Feuchte:Windchill:Wind:
Aussen-T/F 126 01-01-2021 10:25:00 2.7 C 5.65 g/m*3 2.7 C 0 km/h
127 01-01-2021 10:30:00 2.7 C 5.65 g/m*3 2.7 C 0 km/h
128 01-01-2021 10:35:00 2.8 C 5.69 g/m*3 2.8 C 0 km/h
129 01-01-2021 10:40:00 2.8 C 5.69 g/m*3 2.8 C 0 km/h
130 01-01-2021 10:45:00 2.8 C 5.69 g/m*3 2.8 C 0 km/h
131 01-01-2021 10:50:00 2.8 C 5.69 g/m*3 2.8 C 0 km/h
132 01-01-2021 10:55:00 2.8 C 5.69 g/m*3 2.8 C 0 km/h
133 01-01-2021 11:00:00 2.9 C 5.73 g/m*3 2.9 C 1.6 km/h
134 01-01-2021 11:05:00 2.9 C 5.73 g/m*3 2.9 C 0 km/h
135 01-01-2021 11:10:00 3 C 5.77 g/m*3 3 C 0 km/h
136 01-01-2021 11:15:00 3 C 5.77 g/m*3 3 C 0 km/h
137 01-01-2021 11:20:00 3.1 C 5.81 g/m*3 3.1 C 0 km/h
138 01-01-2021 11:25:00 3.1 C 5.81 g/m*3 3.1 C 1.6 km/h
139 01-01-2021 11:30:00 3.1 C 5.81 g/m*3 3.1 C 0 km/h
140 01-01-2021 11:35:00 3 C 5.77 g/m*3 3 C 3.2 km/h
141 01-01-2021 11:40:00 3 C 5.77 g/m*3 3 C 4.8 km/h
142 01-01-2021 11:45:00 3 C 5.77 g/m*3 1.28 C 6.4 km/h
143 01-01-2021 11:50:00 2.9 C 5.73 g/m*3 1.17 C 6.4 km/h
144 01-01-2021 11:55:00 2.9 C 5.73 g/m*3 1.17 C 6.4 km/h
145 01-01-2021 12:00:00 2.9 C 5.73 g/m*3 2.9 C 0 km/h
146 01-01-2021 12:05:00 2.9 C 5.73 g/m*3 2.9 C 4.8 km/h
147 01-01-2021 12:10:00 2.9 C 5.73 g/m*3 1.17 C 6.4 km/h
148 01-01-2021 12:15:00 2.9 C 5.73 g/m*3 2.9 C 3.2 km/h
149 01-01-2021 12:20:00 2.9 C 5.73 g/m*3 2.9 C 0 km/h
150 01-01-2021 12:25:00 2.9 C 5.73 g/m*3 2.9 C 0 km/h
Sensor: Nr:Datum:Temp:Abs-Feuchte:Windchill:Wind:
Aussen-T/F 151 01-01-2021 12:30:00 3 C 5.77 g/m*3 3 C 0 km/h
152 01-01-2021 12:35:00 3 C 5.77 g/m*3 3 C 3.2 km/h
153 01-01-2021 12:40:00 3 C 5.77 g/m*3 3 C 0 km/h
154 01-01-2021 12:45:00 3 C 5.77 g/m*3 3 C 0 km/h
155 01-01-2021 12:50:00 3 C 5.77 g/m*3 3 C 3.2 km/h
156 01-01-2021 12:55:00 3 C 5.77 g/m*3 3 C 3.2 km/h
157 01-01-2021 13:00:00 3 C 5.77 g/m*3 3 C 3.2 km/h
158 01-01-2021 13:05:00 3 C 5.71 g/m*3 1.28 C 6.4 km/h
159 01-01-2021 13:10:00 3 C 5.71 g/m*3 3 C 0 km/h
160 01-01-2021 13:15:00 3 C 5.71 g/m*3 3 C 3.2 km/h
161 01-01-2021 13:20:00 3 C 5.71 g/m*3 3 C 0 km/h
162 01-01-2021 13:25:00 3.1 C 5.75 g/m*3 3.1 C 0 km/h
163 01-01-2021 13:30:00 3.1 C 5.75 g/m*3 3.1 C 0 km/h
164 01-01-2021 13:35:00 3.1 C 5.75 g/m*3 3.1 C 4.8 km/h
165 01-01-2021 13:40:00 3 C 5.71 g/m*3 3 C 3.2 km/h
166 01-01-2021 13:45:00 3 C 5.71 g/m*3 3 C 1.6 km/h
167 01-01-2021 13:50:00 3 C 5.71 g/m*3 3 C 0 km/h
168 01-01-2021 13:55:00 3 C 5.71 g/m*3 3 C 1.6 km/h
169 01-01-2021 14:00:00 3 C 5.71 g/m*3 3 C 0 km/h
170 01-01-2021 14:05:00 3 C 5.71 g/m*3 3 C 0 km/h
171 01-01-2021 14:10:00 3 C 5.71 g/m*3 3 C 0 km/h
172 01-01-2021 14:15:00 3.1 C 5.75 g/m*3 3.1 C 0 km/h
173 01-01-2021 14:20:00 3.1 C 5.75 g/m*3 3.1 C 4.8 km/h
174 01-01-2021 14:25:00 3.1 C 5.75 g/m*3 3.1 C 0 km/h
175 01-01-2021 14:30:00 3.1 C 5.75 g/m*3 3.1 C 0 km/h
Sensor: Nr:Datum:Temp:Abs-Feuchte:Windchill:Wind:
Aussen-T/F 176 01-01-2021 14:35:00 3.1 C 5.75 g/m*3 3.1 C 1.6 km/h
177 01-01-2021 14:40:00 3.1 C 5.75 g/m*3 3.1 C 0 km/h
178 01-01-2021 14:45:00 3.1 C 5.75 g/m*3 3.1 C 0 km/h
179 01-01-2021 14:50:00 3.1 C 5.75 g/m*3 3.1 C 0 km/h
180 01-01-2021 14:55:00 3.1 C 5.75 g/m*3 3.1 C 0 km/h
181 01-01-2021 15:00:00 3.1 C 5.75 g/m*3 3.1 C 0 km/h
182 01-01-2021 15:05:00 3.1 C 5.75 g/m*3 3.1 C 0 km/h
183 01-01-2021 15:10:00 3.1 C 5.75 g/m*3 3.1 C 0 km/h
184 01-01-2021 15:15:00 3.1 C 5.75 g/m*3 3.1 C 0 km/h
185 01-01-2021 15:20:00 3.2 C 5.79 g/m*3 3.2 C 1.6 km/h
186 01-01-2021 15:25:00 3.2 C 5.79 g/m*3 3.2 C 3.2 km/h
187 01-01-2021 15:30:00 3.2 C 5.79 g/m*3 3.2 C 3.2 km/h
188 01-01-2021 15:35:00 3.2 C 5.79 g/m*3 3.2 C 3.2 km/h
189 01-01-2021 15:40:00 3.1 C 5.75 g/m*3 3.1 C 3.2 km/h
190 01-01-2021 15:45:00 3.1 C 5.75 g/m*3 3.1 C 0 km/h
191 01-01-2021 15:50:00 3.1 C 5.75 g/m*3 3.1 C 0 km/h
192 01-01-2021 15:55:00 3.1 C 5.75 g/m*3 3.1 C 0 km/h
193 01-01-2021 16:00:00 3.1 C 5.75 g/m*3 3.1 C 0 km/h
194 01-01-2021 16:05:00 3 C 5.71 g/m*3 3 C 3.2 km/h
195 01-01-2021 16:10:00 3 C 5.71 g/m*3 3 C 3.2 km/h
196 01-01-2021 16:15:00 3 C 5.71 g/m*3 3 C 3.2 km/h
197 01-01-2021 16:20:00 2.9 C 5.67 g/m*3 2.9 C 0 km/h
198 01-01-2021 16:25:00 2.9 C 5.67 g/m*3 2.9 C 0 km/h
199 01-01-2021 16:30:00 2.9 C 5.67 g/m*3 2.9 C 0 km/h
200 01-01-2021 16:35:00 2.8 C 5.63 g/m*3 2.8 C 0 km/h
Sensor: Nr:Datum:Temp:Abs-Feuchte:Windchill:Wind:
Aussen-T/F 201 01-01-2021 16:40:00 2.8 C 5.63 g/m*3 2.8 C 0 km/h
202 01-01-2021 16:45:00 2.8 C 5.63 g/m*3 2.8 C 0 km/h
203 01-01-2021 16:50:00 2.8 C 5.63 g/m*3 2.8 C 0 km/h
204 01-01-2021 16:55:00 2.8 C 5.63 g/m*3 2.8 C 0 km/h
205 01-01-2021 17:00:00 2.7 C 5.59 g/m*3 2.7 C 0 km/h
206 01-01-2021 17:05:00 2.7 C 5.59 g/m*3 2.7 C 0 km/h
207 01-01-2021 17:10:00 2.7 C 5.59 g/m*3 2.7 C 0 km/h
208 01-01-2021 17:15:00 2.7 C 5.59 g/m*3 2.7 C 0 km/h
209 01-01-2021 17:20:00 2.7 C 5.59 g/m*3 2.7 C 0 km/h
210 01-01-2021 17:25:00 2.7 C 5.59 g/m*3 2.7 C 0 km/h
211 01-01-2021 17:30:00 2.7 C 5.59 g/m*3 2.7 C 0 km/h
212 01-01-2021 17:35:00 2.7 C 5.59 g/m*3 2.7 C 0 km/h
213 01-01-2021 17:40:00 2.7 C 5.59 g/m*3 2.7 C 0 km/h
214 01-01-2021 17:45:00 2.7 C 5.59 g/m*3 2.7 C 0 km/h
215 01-01-2021 17:50:00 2.6 C 5.56 g/m*3 2.6 C 0 km/h
216 01-01-2021 17:55:00 2.6 C 5.56 g/m*3 2.6 C 0 km/h
217 01-01-2021 18:00:00 2.6 C 5.56 g/m*3 2.6 C 0 km/h
218 01-01-2021 18:05:00 2.6 C 5.56 g/m*3 2.6 C 0 km/h
219 01-01-2021 18:10:00 2.6 C 5.56 g/m*3 2.6 C 0 km/h
220 01-01-2021 18:15:00 2.6 C 5.56 g/m*3 2.6 C 0 km/h
221 01-01-2021 18:20:00 2.6 C 5.56 g/m*3 2.6 C 0 km/h
222 01-01-2021 18:25:00 2.6 C 5.56 g/m*3 2.6 C 0 km/h
223 01-01-2021 18:30:00 2.5 C 5.52 g/m*3 2.5 C 0 km/h
224 01-01-2021 18:35:00 2.5 C 5.52 g/m*3 2.5 C 0 km/h
225 01-01-2021 18:40:00 2.5 C 5.52 g/m*3 2.5 C 0 km/h
Sensor: Nr:Datum:Temp:Abs-Feuchte:Windchill:Wind:
Aussen-T/F 226 01-01-2021 18:45:00 2.4 C 5.48 g/m*3 2.4 C 0 km/h
227 01-01-2021 18:50:00 2.4 C 5.48 g/m*3 2.4 C 0 km/h
228 01-01-2021 18:55:00 2.4 C 5.48 g/m*3 2.4 C 0 km/h
229 01-01-2021 19:00:00 2.3 C 5.44 g/m*3 2.3 C 0 km/h
230 01-01-2021 19:05:00 2.2 C 5.41 g/m*3 2.2 C 0 km/h
231 01-01-2021 19:10:00 2.1 C 5.37 g/m*3 2.1 C 0 km/h
232 01-01-2021 19:15:00 2 C 5.33 g/m*3 2 C 0 km/h
233 01-01-2021 19:20:00 1.9 C 5.3 g/m*3 1.9 C 0 km/h
234 01-01-2021 19:25:00 1.9 C 5.3 g/m*3 1.9 C 0 km/h
235 01-01-2021 19:30:00 1.8 C 5.26 g/m*3 1.8 C 0 km/h
236 01-01-2021 19:35:00 1.7 C 5.23 g/m*3 1.7 C 0 km/h
237 01-01-2021 19:40:00 1.6 C 5.19 g/m*3 1.6 C 0 km/h
238 01-01-2021 19:45:00 1.5 C 5.16 g/m*3 1.5 C 0 km/h
239 01-01-2021 19:50:00 1.4 C 5.12 g/m*3 1.4 C 0 km/h
240 01-01-2021 19:55:00 1.3 C 5.09 g/m*3 1.3 C 0 km/h
241 01-01-2021 20:00:00 1.3 C 5.09 g/m*3 1.3 C 0 km/h
242 01-01-2021 20:05:00 1.2 C 5.05 g/m*3 1.2 C 0 km/h
243 01-01-2021 20:10:00 1.2 C 5.05 g/m*3 1.2 C 0 km/h
244 01-01-2021 20:15:00 1.3 C 5.09 g/m*3 1.3 C 0 km/h
245 01-01-2021 20:20:00 1.3 C 5.09 g/m*3 1.3 C 0 km/h
246 01-01-2021 20:25:00 1.4 C 5.12 g/m*3 1.4 C 0 km/h
247 01-01-2021 20:30:00 1.4 C 5.12 g/m*3 1.4 C 0 km/h
248 01-01-2021 20:35:00 1.4 C 5.12 g/m*3 1.4 C 0 km/h
249 01-01-2021 20:40:00 1.3 C 5.09 g/m*3 1.3 C 0 km/h
250 01-01-2021 20:45:00 1.2 C 5.05 g/m*3 1.2 C 0 km/h
Sensor: Nr:Datum:Temp:Abs-Feuchte:Windchill:Wind:
Aussen-T/F 251 01-01-2021 20:50:00 1.1 C 5.02 g/m*3 1.1 C 0 km/h
252 01-01-2021 20:55:00 1.1 C 5.02 g/m*3 1.1 C 0 km/h
253 01-01-2021 21:00:00 1.1 C 5.02 g/m*3 1.1 C 0 km/h
254 01-01-2021 21:05:00 1.1 C 5.02 g/m*3 1.1 C 0 km/h
255 01-01-2021 21:10:00 1.1 C 5.02 g/m*3 1.1 C 0 km/h
256 01-01-2021 21:15:00 1 C 4.98 g/m*3 1 C 0 km/h
257 01-01-2021 21:20:00 0.9 C 4.95 g/m*3 0.9 C 0 km/h
258 01-01-2021 21:25:00 0.8 C 4.91 g/m*3 0.8 C 0 km/h
259 01-01-2021 21:30:00 0.7 C 4.88 g/m*3 0.7 C 0 km/h
260 01-01-2021 21:35:00 0.7 C 4.88 g/m*3 0.7 C 0 km/h
261 01-01-2021 21:40:00 0.6 C 4.85 g/m*3 0.6 C 0 km/h
262 01-01-2021 21:45:00 0.6 C 4.85 g/m*3 0.6 C 0 km/h
263 01-01-2021 21:50:00 0.6 C 4.85 g/m*3 0.6 C 0 km/h
264 01-01-2021 21:55:00 0.4 C 4.78 g/m*3 0.4 C 0 km/h
265 01-01-2021 22:00:00 0.4 C 4.78 g/m*3 0.4 C 0 km/h
266 01-01-2021 22:05:00 0.4 C 4.78 g/m*3 0.4 C 0 km/h
267 01-01-2021 22:10:00 0.4 C 4.78 g/m*3 0.4 C 0 km/h
268 01-01-2021 22:15:00 0.4 C 4.78 g/m*3 0.4 C 0 km/h
269 01-01-2021 22:20:00 0.5 C 4.81 g/m*3 0.5 C 0 km/h
270 01-01-2021 22:25:00 0.6 C 4.9 g/m*3 0.6 C 0 km/h
271 01-01-2021 22:30:00 0.7 C 4.93 g/m*3 0.7 C 0 km/h
272 01-01-2021 22:35:00 0.7 C 4.93 g/m*3 0.7 C 0 km/h
273 01-01-2021 22:40:00 0.8 C 4.97 g/m*3 0.8 C 0 km/h
274 01-01-2021 22:45:00 0.8 C 4.97 g/m*3 0.8 C 0 km/h
275 01-01-2021 22:50:00 0.8 C 4.97 g/m*3 0.8 C 0 km/h
Sensor: Nr:Datum:Temp:Abs-Feuchte:Windchill:Wind:
Aussen-T/F 276 01-01-2021 22:55:00 0.8 C 4.97 g/m*3 0.8 C 0 km/h
277 01-01-2021 23:00:00 0.8 C 4.97 g/m*3 0.8 C 0 km/h
278 01-01-2021 23:05:00 0.8 C 4.97 g/m*3 0.8 C 0 km/h
279 01-01-2021 23:10:00 0.8 C 4.97 g/m*3 0.8 C 0 km/h
280 01-01-2021 23:15:00 0.8 C 4.97 g/m*3 0.8 C 0 km/h
281 01-01-2021 23:20:00 0.8 C 4.97 g/m*3 0.8 C 0 km/h
282 01-01-2021 23:25:00 0.8 C 4.97 g/m*3 0.8 C 0 km/h
283 01-01-2021 23:30:00 0.8 C 4.97 g/m*3 0.8 C 0 km/h
284 01-01-2021 23:35:00 0.8 C 4.97 g/m*3 0.8 C 0 km/h
285 01-01-2021 23:40:00 0.7 C 4.93 g/m*3 0.7 C 0 km/h
286 01-01-2021 23:45:00 0.7 C 4.93 g/m*3 0.7 C 0 km/h
287 01-01-2021 23:50:00 0.7 C 4.93 g/m*3 0.7 C 0 km/h
288 01-01-2021 23:55:00 0.7 C 4.93 g/m*3 0.7 C 0 km/h
289 02-01-2021 00:00:00 0.7 C 4.93 g/m*3 0.7 C 0 km/h
290 02-01-2021 00:05:00 0.7 C 4.93 g/m*3 0.7 C 0 km/h
291 02-01-2021 00:10:00 0.8 C 4.97 g/m*3 0.8 C 0 km/h
292 02-01-2021 00:15:00 0.8 C 4.97 g/m*3 0.8 C 0 km/h
293 02-01-2021 00:20:00 0.8 C 4.97 g/m*3 0.8 C 0 km/h
294 02-01-2021 00:25:00 0.8 C 4.97 g/m*3 0.8 C 0 km/h
295 02-01-2021 00:30:00 0.8 C 4.97 g/m*3 0.8 C 0 km/h
296 02-01-2021 00:35:00 0.8 C 4.97 g/m*3 0.8 C 0 km/h
297 02-01-2021 00:40:00 0.8 C 4.97 g/m*3 0.8 C 0 km/h
298 02-01-2021 00:45:00 0.9 C 5 g/m*3 0.9 C 3.2 km/h
299 02-01-2021 00:50:00 0.9 C 5 g/m*3 0.9 C 4.8 km/h
300 02-01-2021 00:55:00 0.9 C 5 g/m*3 -1.14 C 6.4 km/h
Sensor: Nr:Datum:Temp:Abs-Feuchte:Windchill:Wind:
Aussen-T/F 301 02-01-2021 01:00:00 0.8 C 4.97 g/m*3 0.8 C 3.2 km/h
302 02-01-2021 01:05:00 0.8 C 4.97 g/m*3 0.8 C 1.6 km/h
303 02-01-2021 01:10:00 0.8 C 4.97 g/m*3 0.8 C 3.2 km/h
304 02-01-2021 01:15:00 0.8 C 4.97 g/m*3 0.8 C 1.6 km/h
305 02-01-2021 01:20:00 0.8 C 4.97 g/m*3 0.8 C 3.2 km/h
306 02-01-2021 01:25:00 0.8 C 4.97 g/m*3 0.8 C 3.2 km/h
307 02-01-2021 01:30:00 0.7 C 4.93 g/m*3 0.7 C 0 km/h
308 02-01-2021 01:35:00 0.7 C 4.93 g/m*3 0.7 C 0 km/h
309 02-01-2021 01:40:00 0.7 C 4.93 g/m*3 0.7 C 0 km/h
310 02-01-2021 01:45:00 0.7 C 4.93 g/m*3 0.7 C 0 km/h
311 02-01-2021 01:50:00 0.7 C 4.93 g/m*3 0.7 C 0 km/h
312 02-01-2021 01:55:00 0.7 C 4.93 g/m*3 0.7 C 0 km/h
313 02-01-2021 02:00:00 0.7 C 4.93 g/m*3 0.7 C 0 km/h
314 02-01-2021 02:05:00 0.7 C 4.93 g/m*3 0.7 C 0 km/h
315 02-01-2021 02:10:00 0.7 C 4.93 g/m*3 0.7 C 0 km/h
316 02-01-2021 02:15:00 0.7 C 4.93 g/m*3 0.7 C 0 km/h
317 02-01-2021 02:20:00 0.7 C 4.93 g/m*3 0.7 C 0 km/h
318 02-01-2021 02:25:00 0.8 C 4.97 g/m*3 0.8 C 0 km/h
319 02-01-2021 02:30:00 0.8 C 4.97 g/m*3 0.8 C 0 km/h
320 02-01-2021 02:35:00 0.8 C 4.97 g/m*3 0.8 C 0 km/h
321 02-01-2021 02:40:00 0.8 C 4.97 g/m*3 0.8 C 0 km/h
322 02-01-2021 02:45:00 0.8 C 4.97 g/m*3 0.8 C 0 km/h
323 02-01-2021 02:50:00 0.8 C 4.97 g/m*3 0.8 C 0 km/h
324 02-01-2021 02:55:00 0.8 C 4.97 g/m*3 0.8 C 0 km/h
325 02-01-2021 03:00:00 0.8 C 4.97 g/m*3 0.8 C 0 km/h
Sensor: Nr:Datum:Temp:Abs-Feuchte:Windchill:Wind:
Aussen-T/F 326 02-01-2021 03:05:00 0.8 C 4.97 g/m*3 0.8 C 0 km/h
327 02-01-2021 03:10:00 0.8 C 4.97 g/m*3 0.8 C 0 km/h
328 02-01-2021 03:15:00 0.8 C 4.97 g/m*3 0.8 C 0 km/h
329 02-01-2021 03:20:00 0.7 C 4.93 g/m*3 0.7 C 0 km/h
330 02-01-2021 03:25:00 0.7 C 4.93 g/m*3 0.7 C 0 km/h
331 02-01-2021 03:30:00 0.7 C 4.93 g/m*3 0.7 C 0 km/h
332 02-01-2021 03:35:00 0.6 C 4.9 g/m*3 0.6 C 0 km/h
333 02-01-2021 03:40:00 0.6 C 4.9 g/m*3 0.6 C 0 km/h
334 02-01-2021 03:45:00 0.6 C 4.9 g/m*3 0.6 C 0 km/h
335 02-01-2021 03:50:00 0.5 C 4.86 g/m*3 0.5 C 4.8 km/h
336 02-01-2021 03:55:00 0.5 C 4.86 g/m*3 0.5 C 4.8 km/h
337 02-01-2021 04:00:00 0.4 C 4.83 g/m*3 0.4 C 1.6 km/h
338 02-01-2021 04:05:00 0.4 C 4.83 g/m*3 0.4 C 1.6 km/h
339 02-01-2021 04:10:00 0.4 C 4.83 g/m*3 0.4 C 1.6 km/h
340 02-01-2021 04:15:00 0.4 C 4.83 g/m*3 0.4 C 4.8 km/h
341 02-01-2021 04:20:00 0.4 C 4.83 g/m*3 0.4 C 0 km/h
342 02-01-2021 04:25:00 0.3 C 4.8 g/m*3 0.3 C 0 km/h
343 02-01-2021 04:30:00 0.3 C 4.8 g/m*3 0.3 C 1.6 km/h
344 02-01-2021 04:35:00 0.3 C 4.8 g/m*3 0.3 C 1.6 km/h
345 02-01-2021 04:40:00 0.4 C 4.83 g/m*3 0.4 C 3.2 km/h
346 02-01-2021 04:45:00 0.4 C 4.83 g/m*3 0.4 C 3.2 km/h
347 02-01-2021 04:50:00 0.4 C 4.83 g/m*3 0.4 C 3.2 km/h
348 02-01-2021 04:55:00 0.4 C 4.83 g/m*3 0.4 C 1.6 km/h
349 02-01-2021 05:00:00 0.4 C 4.83 g/m*3 0.4 C 1.6 km/h
350 02-01-2021 05:05:00 0.3 C 4.8 g/m*3 0.3 C 1.6 km/h
Sensor: Nr:Datum:Temp:Abs-Feuchte:Windchill:Wind:
Aussen-T/F 351 02-01-2021 05:10:00 0.4 C 4.83 g/m*3 0.4 C 4.8 km/h
352 02-01-2021 05:15:00 0.3 C 4.8 g/m*3 0.3 C 4.8 km/h
353 02-01-2021 05:20:00 0.3 C 4.8 g/m*3 0.3 C 3.2 km/h
354 02-01-2021 05:25:00 0.3 C 4.8 g/m*3 0.3 C 1.6 km/h
355 02-01-2021 05:30:00 0.3 C 4.8 g/m*3 -1.84 C 6.4 km/h
356 02-01-2021 05:35:00 0.3 C 4.8 g/m*3 0.3 C 3.2 km/h
357 02-01-2021 05:40:00 0.3 C 4.8 g/m*3 0.3 C 3.2 km/h
358 02-01-2021 05:45:00 0.3 C 4.8 g/m*3 0.3 C 3.2 km/h
359 02-01-2021 05:50:00 0.3 C 4.8 g/m*3 0.3 C 1.6 km/h
360 02-01-2021 05:55:00 0.4 C 4.83 g/m*3 0.4 C 1.6 km/h
361 02-01-2021 06:00:00 0.4 C 4.83 g/m*3 0.4 C 3.2 km/h
362 02-01-2021 06:05:00 0.4 C 4.83 g/m*3 0.4 C 1.6 km/h
363 02-01-2021 06:10:00 0.4 C 4.83 g/m*3 0.4 C 1.6 km/h
364 02-01-2021 06:15:00 0.4 C 4.83 g/m*3 0.4 C 3.2 km/h
365 02-01-2021 06:20:00 0.4 C 4.83 g/m*3 0.4 C 4.8 km/h
366 02-01-2021 06:25:00 0.5 C 4.86 g/m*3 -1.6 C 6.4 km/h
367 02-01-2021 06:30:00 0.4 C 4.83 g/m*3 0.4 C 1.6 km/h
368 02-01-2021 06:35:00 0.5 C 4.86 g/m*3 0.5 C 3.2 km/h
369 02-01-2021 06:40:00 0.4 C 4.83 g/m*3 0.4 C 4.8 km/h
370 02-01-2021 06:45:00 0.4 C 4.83 g/m*3 0.4 C 1.6 km/h
371 02-01-2021 06:50:00 0.5 C 4.86 g/m*3 0.5 C 4.8 km/h
372 02-01-2021 06:55:00 0.4 C 4.83 g/m*3 0.4 C 4.8 km/h
373 02-01-2021 07:00:00 0.4 C 4.83 g/m*3 0.4 C 4.8 km/h
374 02-01-2021 07:05:00 0.4 C 4.83 g/m*3 0.4 C 3.2 km/h
375 02-01-2021 07:10:00 0.4 C 4.83 g/m*3 0.4 C 4.8 km/h
Sensor: Nr:Datum:Temp:Abs-Feuchte:Windchill:Wind:
Aussen-T/F 376 02-01-2021 07:15:00 0.4 C 4.83 g/m*3 0.4 C 3.2 km/h
377 02-01-2021 07:20:00 0.5 C 4.86 g/m*3 0.5 C 3.2 km/h
378 02-01-2021 07:25:00 0.4 C 4.83 g/m*3 0.4 C 4.8 km/h
379 02-01-2021 07:30:00 0.4 C 4.83 g/m*3 0.4 C 4.8 km/h
380 02-01-2021 07:35:00 0.4 C 4.83 g/m*3 0.4 C 4.8 km/h
381 02-01-2021 07:40:00 0.4 C 4.83 g/m*3 0.4 C 3.2 km/h
382 02-01-2021 07:45:00 0.4 C 4.83 g/m*3 0.4 C 1.6 km/h
383 02-01-2021 07:50:00 0.4 C 4.83 g/m*3 0.4 C 3.2 km/h
384 02-01-2021 07:55:00 0.4 C 4.83 g/m*3 0.4 C 4.8 km/h
385 02-01-2021 08:00:00 0.4 C 4.83 g/m*3 0.4 C 1.6 km/h
386 02-01-2021 08:05:00 0.4 C 4.83 g/m*3 0.4 C 3.2 km/h
387 02-01-2021 08:10:00 0.4 C 4.83 g/m*3 0.4 C 3.2 km/h
388 02-01-2021 08:15:00 0.4 C 4.83 g/m*3 0.4 C 4.8 km/h
389 02-01-2021 08:20:00 0.4 C 4.83 g/m*3 0.4 C 3.2 km/h
390 02-01-2021 08:25:00 0.4 C 4.83 g/m*3 0.4 C 0 km/h
391 02-01-2021 08:30:00 0.4 C 4.83 g/m*3 0.4 C 0 km/h
392 02-01-2021 08:35:00 0.4 C 4.83 g/m*3 0.4 C 1.6 km/h
393 02-01-2021 08:40:00 0.4 C 4.83 g/m*3 0.4 C 3.2 km/h
394 02-01-2021 08:45:00 0.4 C 4.83 g/m*3 0.4 C 1.6 km/h
395 02-01-2021 08:50:00 0.4 C 4.83 g/m*3 0.4 C 0 km/h
396 02-01-2021 08:55:00 0.4 C 4.83 g/m*3 0.4 C 0 km/h
397 02-01-2021 09:00:00 0.4 C 4.83 g/m*3 0.4 C 1.6 km/h
398 02-01-2021 09:05:00 0.5 C 4.86 g/m*3 0.5 C 1.6 km/h
399 02-01-2021 09:10:00 0.4 C 4.83 g/m*3 0.4 C 0 km/h
400 02-01-2021 09:15:00 0.5 C 4.86 g/m*3 0.5 C 0 km/h
Sensor: Nr:Datum:Temp:Abs-Feuchte:Windchill:Wind:
Aussen-T/F 401 02-01-2021 09:20:00 0.5 C 4.86 g/m*3 0.5 C 1.6 km/h
402 02-01-2021 09:25:00 0.5 C 4.86 g/m*3 0.5 C 0 km/h
403 02-01-2021 09:30:00 0.5 C 4.86 g/m*3 0.5 C 0 km/h
404 02-01-2021 09:35:00 0.6 C 4.9 g/m*3 0.6 C 1.6 km/h
405 02-01-2021 09:40:00 0.6 C 4.9 g/m*3 0.6 C 3.2 km/h
406 02-01-2021 09:45:00 0.6 C 4.9 g/m*3 0.6 C 0 km/h
407 02-01-2021 09:50:00 0.6 C 4.9 g/m*3 0.6 C 0 km/h
408 02-01-2021 09:55:00 0.7 C 4.93 g/m*3 0.7 C 3.2 km/h
409 02-01-2021 10:00:00 0.7 C 4.93 g/m*3 0.7 C 1.6 km/h
410 02-01-2021 10:05:00 0.7 C 4.93 g/m*3 0.7 C 0 km/h
411 02-01-2021 10:10:00 0.7 C 4.93 g/m*3 0.7 C 0 km/h
412 02-01-2021 10:15:00 0.8 C 4.97 g/m*3 0.8 C 0 km/h
413 02-01-2021 10:20:00 0.8 C 4.97 g/m*3 0.8 C 1.6 km/h
414 02-01-2021 10:25:00 0.8 C 4.97 g/m*3 0.8 C 0 km/h
415 02-01-2021 10:30:00 0.8 C 4.97 g/m*3 0.8 C 0 km/h
416 02-01-2021 10:35:00 0.8 C 4.97 g/m*3 0.8 C 1.6 km/h
417 02-01-2021 10:40:00 0.9 C 5 g/m*3 0.9 C 3.2 km/h
418 02-01-2021 10:45:00 0.9 C 5 g/m*3 0.9 C 1.6 km/h
419 02-01-2021 10:50:00 0.9 C 5 g/m*3 0.9 C 0 km/h
420 02-01-2021 10:55:00 1 C 5.03 g/m*3 1 C 0 km/h
421 02-01-2021 11:00:00 1.1 C 5.07 g/m*3 1.1 C 0 km/h
422 02-01-2021 11:05:00 1.1 C 5.07 g/m*3 1.1 C 1.6 km/h
423 02-01-2021 11:10:00 1.2 C 5.1 g/m*3 1.2 C 0 km/h
424 02-01-2021 11:15:00 1.2 C 5.1 g/m*3 1.2 C 1.6 km/h
425 02-01-2021 11:20:00 1.2 C 5.1 g/m*3 1.2 C 1.6 km/h
Sensor: Nr:Datum:Temp:Abs-Feuchte:Windchill:Wind:
Aussen-T/F 426 02-01-2021 11:25:00 1.3 C 5.14 g/m*3 1.3 C 0 km/h
427 02-01-2021 11:30:00 1.3 C 5.14 g/m*3 1.3 C 0 km/h
428 02-01-2021 11:35:00 1.3 C 5.14 g/m*3 1.3 C 0 km/h
429 02-01-2021 11:40:00 1.4 C 5.17 g/m*3 1.4 C 0 km/h
430 02-01-2021 11:45:00 1.4 C 5.17 g/m*3 1.4 C 0 km/h
431 02-01-2021 11:50:00 1.5 C 5.16 g/m*3 1.5 C 0 km/h
432 02-01-2021 11:55:00 1.6 C 5.25 g/m*3 1.6 C 0 km/h
433 02-01-2021 12:00:00 1.6 C 5.19 g/m*3 1.6 C 1.6 km/h
434 02-01-2021 12:05:00 1.7 C 5.23 g/m*3 1.7 C 0 km/h
435 02-01-2021 12:10:00 1.8 C 5.26 g/m*3 1.8 C 0 km/h
436 02-01-2021 12:15:00 1.8 C 5.26 g/m*3 1.8 C 1.6 km/h
437 02-01-2021 12:20:00 1.8 C 5.26 g/m*3 1.8 C 0 km/h
438 02-01-2021 12:25:00 1.8 C 5.26 g/m*3 1.8 C 0 km/h
439 02-01-2021 12:30:00 1.8 C 5.26 g/m*3 1.8 C 3.2 km/h
440 02-01-2021 12:35:00 1.8 C 5.26 g/m*3 1.8 C 0 km/h
441 02-01-2021 12:40:00 1.9 C 5.3 g/m*3 1.9 C 0 km/h
442 02-01-2021 12:45:00 2 C 5.28 g/m*3 2 C 0 km/h
443 02-01-2021 12:50:00 2.1 C 5.31 g/m*3 2.1 C 0 km/h
444 02-01-2021 12:55:00 2.1 C 5.31 g/m*3 2.1 C 3.2 km/h
445 02-01-2021 13:00:00 2.1 C 5.31 g/m*3 2.1 C 1.6 km/h
446 02-01-2021 13:05:00 2.1 C 5.31 g/m*3 2.1 C 3.2 km/h
447 02-01-2021 13:10:00 2.1 C 5.26 g/m*3 2.1 C 3.2 km/h
448 02-01-2021 13:15:00 2.2 C 5.29 g/m*3 2.2 C 0 km/h
449 02-01-2021 13:20:00 2.2 C 5.35 g/m*3 2.2 C 0 km/h
450 02-01-2021 13:25:00 2.2 C 5.35 g/m*3 2.2 C 3.2 km/h
Sensor: Nr:Datum:Temp:Abs-Feuchte:Windchill:Wind:
Aussen-T/F 451 02-01-2021 13:30:00 2.3 C 5.39 g/m*3 2.3 C 3.2 km/h
452 02-01-2021 13:35:00 2.3 C 5.33 g/m*3 2.3 C 0 km/h
453 02-01-2021 13:40:00 2.3 C 5.33 g/m*3 2.3 C 0 km/h
454 02-01-2021 13:45:00 2.4 C 5.37 g/m*3 2.4 C 0 km/h
455 02-01-2021 13:50:00 2.3 C 5.33 g/m*3 2.3 C 0 km/h
456 02-01-2021 13:55:00 2.3 C 5.33 g/m*3 2.3 C 1.6 km/h
457 02-01-2021 14:00:00 2.3 C 5.33 g/m*3 2.3 C 1.6 km/h
458 02-01-2021 14:05:00 2.4 C 5.37 g/m*3 2.4 C 3.2 km/h
459 02-01-2021 14:10:00 2.4 C 5.37 g/m*3 2.4 C 0 km/h
460 02-01-2021 14:15:00 2.4 C 5.37 g/m*3 2.4 C 0 km/h
461 02-01-2021 14:20:00 2.4 C 5.37 g/m*3 2.4 C 1.6 km/h
462 02-01-2021 14:25:00 2.4 C 5.37 g/m*3 2.4 C 0 km/h
463 02-01-2021 14:30:00 2.4 C 5.37 g/m*3 2.4 C 1.6 km/h
464 02-01-2021 14:35:00 2.4 C 5.37 g/m*3 2.4 C 0 km/h
465 02-01-2021 14:40:00 2.5 C 5.4 g/m*3 2.5 C 0 km/h
466 02-01-2021 14:45:00 2.5 C 5.4 g/m*3 2.5 C 0 km/h
467 02-01-2021 14:50:00 2.5 C 5.4 g/m*3 2.5 C 0 km/h
468 02-01-2021 14:55:00 2.5 C 5.4 g/m*3 2.5 C 0 km/h
469 02-01-2021 15:00:00 2.6 C 5.44 g/m*3 2.6 C 3.2 km/h
470 02-01-2021 15:05:00 2.6 C 5.44 g/m*3 2.6 C 0 km/h
471 02-01-2021 15:10:00 2.6 C 5.44 g/m*3 2.6 C 3.2 km/h
472 02-01-2021 15:15:00 2.6 C 5.44 g/m*3 2.6 C 1.6 km/h
473 02-01-2021 15:20:00 2.6 C 5.44 g/m*3 2.6 C 3.2 km/h
474 02-01-2021 15:25:00 2.6 C 5.44 g/m*3 2.6 C 3.2 km/h
475 02-01-2021 15:30:00 2.7 C 5.48 g/m*3 2.7 C 0 km/h
Sensor: Nr:Datum:Temp:Abs-Feuchte:Windchill:Wind:
Aussen-T/F 476 02-01-2021 15:35:00 2.7 C 5.48 g/m*3 2.7 C 0 km/h
477 02-01-2021 15:40:00 2.7 C 5.48 g/m*3 2.7 C 1.6 km/h
478 02-01-2021 15:45:00 2.7 C 5.48 g/m*3 2.7 C 0 km/h
479 02-01-2021 15:50:00 2.7 C 5.48 g/m*3 2.7 C 1.6 km/h
480 02-01-2021 15:55:00 2.7 C 5.48 g/m*3 2.7 C 1.6 km/h
481 02-01-2021 16:00:00 2.7 C 5.48 g/m*3 2.7 C 1.6 km/h
482 02-01-2021 16:05:00 2.6 C 5.44 g/m*3 2.6 C 1.6 km/h
483 02-01-2021 16:10:00 2.6 C 5.44 g/m*3 2.6 C 0 km/h
484 02-01-2021 16:15:00 2.6 C 5.44 g/m*3 2.6 C 0 km/h
485 02-01-2021 16:20:00 2.6 C 5.44 g/m*3 2.6 C 0 km/h
486 02-01-2021 16:25:00 2.6 C 5.44 g/m*3 2.6 C 0 km/h
487 02-01-2021 16:30:00 2.5 C 5.4 g/m*3 2.5 C 0 km/h
488 02-01-2021 16:35:00 2.5 C 5.4 g/m*3 2.5 C 0 km/h
489 02-01-2021 16:40:00 2.5 C 5.4 g/m*3 2.5 C 1.6 km/h
490 02-01-2021 16:45:00 2.4 C 5.37 g/m*3 2.4 C 0 km/h
491 02-01-2021 16:50:00 2.4 C 5.37 g/m*3 2.4 C 0 km/h
492 02-01-2021 16:55:00 2.3 C 5.33 g/m*3 2.3 C 0 km/h
493 02-01-2021 17:00:00 2.3 C 5.33 g/m*3 2.3 C 3.2 km/h
494 02-01-2021 17:05:00 2.3 C 5.33 g/m*3 2.3 C 0 km/h
495 02-01-2021 17:10:00 2.3 C 5.39 g/m*3 2.3 C 0 km/h
496 02-01-2021 17:15:00 2.2 C 5.35 g/m*3 2.2 C 1.6 km/h
497 02-01-2021 17:20:00 2.2 C 5.35 g/m*3 2.2 C 0 km/h
498 02-01-2021 17:25:00 2.2 C 5.35 g/m*3 2.2 C 0 km/h
499 02-01-2021 17:30:00 2.2 C 5.35 g/m*3 2.2 C 0 km/h
500 02-01-2021 17:35:00 2.1 C 5.31 g/m*3 2.1 C 0 km/h
Sensor: Nr:Datum:Temp:Abs-Feuchte:Windchill:Wind:
Aussen-T/F 501 02-01-2021 17:40:00 2.1 C 5.31 g/m*3 2.1 C 0 km/h
502 02-01-2021 17:45:00 2.1 C 5.31 g/m*3 2.1 C 0 km/h
503 02-01-2021 17:50:00 2.1 C 5.31 g/m*3 2.1 C 0 km/h
504 02-01-2021 17:55:00 2.1 C 5.31 g/m*3 2.1 C 0 km/h
505 02-01-2021 18:00:00 2.1 C 5.31 g/m*3 2.1 C 0 km/h
506 02-01-2021 18:05:00 2.1 C 5.31 g/m*3 2.1 C 0 km/h
507 02-01-2021 18:10:00 2.1 C 5.31 g/m*3 2.1 C 0 km/h
508 02-01-2021 18:15:00 2.1 C 5.31 g/m*3 2.1 C 0 km/h
509 02-01-2021 18:20:00 2 C 5.28 g/m*3 2 C 0 km/h
510 02-01-2021 18:25:00 2 C 5.28 g/m*3 2 C 0 km/h
511 02-01-2021 18:30:00 2 C 5.28 g/m*3 2 C 0 km/h
512 02-01-2021 18:35:00 2 C 5.28 g/m*3 2 C 0 km/h
513 02-01-2021 18:40:00 2 C 5.28 g/m*3 2 C 0 km/h
514 02-01-2021 18:45:00 2 C 5.28 g/m*3 2 C 0 km/h
515 02-01-2021 18:50:00 2 C 5.28 g/m*3 2 C 0 km/h
516 02-01-2021 18:55:00 2 C 5.28 g/m*3 2 C 0 km/h
517 02-01-2021 19:00:00 1.9 C 5.24 g/m*3 1.9 C 0 km/h
518 02-01-2021 19:05:00 1.9 C 5.24 g/m*3 1.9 C 0 km/h
519 02-01-2021 19:10:00 1.9 C 5.24 g/m*3 1.9 C 0 km/h
520 02-01-2021 19:15:00 1.9 C 5.24 g/m*3 1.9 C 0 km/h
521 02-01-2021 19:20:00 2 C 5.28 g/m*3 2 C 0 km/h
522 02-01-2021 19:25:00 2 C 5.33 g/m*3 2 C 0 km/h
523 02-01-2021 19:30:00 2 C 5.33 g/m*3 2 C 0 km/h
524 02-01-2021 19:35:00 2 C 5.33 g/m*3 2 C 0 km/h
525 02-01-2021 19:40:00 2 C 5.33 g/m*3 2 C 0 km/h
Sensor: Nr:Datum:Temp:Abs-Feuchte:Windchill:Wind:
Aussen-T/F 526 02-01-2021 19:45:00 2 C 5.33 g/m*3 2 C 0 km/h
527 02-01-2021 19:50:00 2 C 5.33 g/m*3 2 C 0 km/h
528 02-01-2021 19:55:00 1.9 C 5.3 g/m*3 1.9 C 0 km/h
529 02-01-2021 20:00:00 1.9 C 5.3 g/m*3 1.9 C 0 km/h
530 02-01-2021 20:05:00 1.9 C 5.3 g/m*3 1.9 C 0 km/h
531 02-01-2021 20:10:00 1.9 C 5.3 g/m*3 1.9 C 0 km/h
532 02-01-2021 20:15:00 1.9 C 5.3 g/m*3 1.9 C 0 km/h
533 02-01-2021 20:20:00 1.9 C 5.3 g/m*3 1.9 C 0 km/h
534 02-01-2021 20:25:00 1.9 C 5.3 g/m*3 1.9 C 0 km/h
535 02-01-2021 20:30:00 1.9 C 5.3 g/m*3 1.9 C 0 km/h
536 02-01-2021 20:35:00 1.9 C 5.3 g/m*3 1.9 C 0 km/h
537 02-01-2021 20:40:00 1.9 C 5.3 g/m*3 1.9 C 0 km/h
538 02-01-2021 20:45:00 1.9 C 5.3 g/m*3 1.9 C 0 km/h
539 02-01-2021 20:50:00 1.9 C 5.3 g/m*3 1.9 C 0 km/h
540 02-01-2021 20:55:00 1.9 C 5.3 g/m*3 1.9 C 0 km/h
541 02-01-2021 21:00:00 1.9 C 5.3 g/m*3 1.9 C 0 km/h
542 02-01-2021 21:05:00 1.9 C 5.3 g/m*3 1.9 C 0 km/h
543 02-01-2021 21:10:00 1.9 C 5.3 g/m*3 1.9 C 0 km/h
544 02-01-2021 21:15:00 1.9 C 5.3 g/m*3 1.9 C 0 km/h
545 02-01-2021 21:20:00 1.9 C 5.3 g/m*3 1.9 C 0 km/h
546 02-01-2021 21:25:00 1.9 C 5.3 g/m*3 1.9 C 0 km/h
547 02-01-2021 21:30:00 1.9 C 5.3 g/m*3 1.9 C 0 km/h
548 02-01-2021 21:35:00 1.9 C 5.3 g/m*3 1.9 C 0 km/h
549 02-01-2021 21:40:00 1.9 C 5.3 g/m*3 1.9 C 0 km/h
550 02-01-2021 21:45:00 1.9 C 5.3 g/m*3 1.9 C 0 km/h
Sensor: Nr:Datum:Temp:Abs-Feuchte:Windchill:Wind:
Aussen-T/F 551 02-01-2021 21:50:00 1.8 C 5.26 g/m*3 1.8 C 0 km/h
552 02-01-2021 21:55:00 1.9 C 5.3 g/m*3 1.9 C 0 km/h
553 02-01-2021 22:00:00 1.8 C 5.26 g/m*3 1.8 C 0 km/h
554 02-01-2021 22:05:00 1.8 C 5.26 g/m*3 1.8 C 0 km/h
555 02-01-2021 22:10:00 1.8 C 5.26 g/m*3 1.8 C 0 km/h
556 02-01-2021 22:15:00 1.8 C 5.26 g/m*3 1.8 C 0 km/h
557 02-01-2021 22:20:00 1.8 C 5.26 g/m*3 1.8 C 0 km/h
558 02-01-2021 22:25:00 1.8 C 5.26 g/m*3 1.8 C 0 km/h
559 02-01-2021 22:30:00 1.8 C 5.26 g/m*3 1.8 C 0 km/h
560 02-01-2021 22:35:00 1.8 C 5.26 g/m*3 1.8 C 0 km/h
561 02-01-2021 22:40:00 1.8 C 5.26 g/m*3 1.8 C 0 km/h
562 02-01-2021 22:45:00 1.8 C 5.26 g/m*3 1.8 C 0 km/h
563 02-01-2021 22:50:00 1.8 C 5.26 g/m*3 1.8 C 0 km/h
564 02-01-2021 22:55:00 1.8 C 5.26 g/m*3 1.8 C 0 km/h
565 02-01-2021 23:00:00 1.8 C 5.26 g/m*3 1.8 C 0 km/h
566 02-01-2021 23:05:00 1.8 C 5.26 g/m*3 1.8 C 0 km/h
567 02-01-2021 23:10:00 1.8 C 5.26 g/m*3 1.8 C 0 km/h
568 02-01-2021 23:15:00 1.8 C 5.26 g/m*3 1.8 C 0 km/h
569 02-01-2021 23:20:00 1.8 C 5.26 g/m*3 1.8 C 0 km/h
570 02-01-2021 23:25:00 1.8 C 5.26 g/m*3 1.8 C 0 km/h
571 02-01-2021 23:30:00 1.8 C 5.26 g/m*3 1.8 C 0 km/h
572 02-01-2021 23:35:00 1.8 C 5.26 g/m*3 1.8 C 0 km/h
573 02-01-2021 23:40:00 1.8 C 5.26 g/m*3 1.8 C 0 km/h
574 02-01-2021 23:45:00 1.8 C 5.26 g/m*3 1.8 C 0 km/h
575 02-01-2021 23:50:00 1.8 C 5.26 g/m*3 1.8 C 0 km/h
Sensor: Nr:Datum:Temp:Abs-Feuchte:Windchill:Wind:
Aussen-T/F 576 02-01-2021 23:55:00 1.8 C 5.26 g/m*3 1.8 C 0 km/h
577 03-01-2021 00:00:00 1.8 C 5.26 g/m*3 1.8 C 0 km/h
578 03-01-2021 00:05:00 1.8 C 5.26 g/m*3 1.8 C 0 km/h
579 03-01-2021 00:10:00 1.9 C 5.3 g/m*3 1.9 C 0 km/h
580 03-01-2021 00:15:00 1.9 C 5.3 g/m*3 1.9 C 0 km/h
581 03-01-2021 00:20:00 1.9 C 5.3 g/m*3 1.9 C 0 km/h
582 03-01-2021 00:25:00 1.9 C 5.3 g/m*3 1.9 C 0 km/h
583 03-01-2021 00:30:00 1.9 C 5.3 g/m*3 1.9 C 0 km/h
584 03-01-2021 00:35:00 1.9 C 5.3 g/m*3 1.9 C 0 km/h
585 03-01-2021 00:40:00 1.9 C 5.3 g/m*3 1.9 C 0 km/h
586 03-01-2021 00:45:00 1.9 C 5.3 g/m*3 1.9 C 0 km/h
587 03-01-2021 00:50:00 1.9 C 5.3 g/m*3 1.9 C 0 km/h
588 03-01-2021 00:55:00 1.9 C 5.3 g/m*3 1.9 C 0 km/h
589 03-01-2021 01:00:00 1.8 C 5.26 g/m*3 1.8 C 0 km/h
590 03-01-2021 01:05:00 1.8 C 5.26 g/m*3 1.8 C 0 km/h
591 03-01-2021 01:10:00 1.8 C 5.26 g/m*3 -0.1 C 6.4 km/h
592 03-01-2021 01:15:00 1.8 C 5.26 g/m*3 1.8 C 1.6 km/h
593 03-01-2021 01:20:00 1.8 C 5.26 g/m*3 1.8 C 1.6 km/h
594 03-01-2021 01:25:00 1.8 C 5.26 g/m*3 1.8 C 3.2 km/h
595 03-01-2021 01:30:00 1.8 C 5.26 g/m*3 1.8 C 1.6 km/h
596 03-01-2021 01:35:00 1.8 C 5.26 g/m*3 1.8 C 3.2 km/h
597 03-01-2021 01:40:00 1.8 C 5.26 g/m*3 1.8 C 3.2 km/h
598 03-01-2021 01:45:00 1.8 C 5.26 g/m*3 1.8 C 4.8 km/h
599 03-01-2021 01:50:00 1.8 C 5.26 g/m*3 1.8 C 4.8 km/h
600 03-01-2021 01:55:00 1.8 C 5.26 g/m*3 -0.65 C 8.1 km/h
Sensor: Nr:Datum:Temp:Abs-Feuchte:Windchill:Wind:
Aussen-T/F 601 03-01-2021 02:00:00 1.8 C 5.21 g/m*3 1.8 C 0 km/h
602 03-01-2021 02:05:00 1.8 C 5.21 g/m*3 1.8 C 1.6 km/h
603 03-01-2021 02:10:00 1.8 C 5.21 g/m*3 1.8 C 0 km/h
604 03-01-2021 02:15:00 1.8 C 5.21 g/m*3 1.8 C 3.2 km/h
605 03-01-2021 02:20:00 1.8 C 5.21 g/m*3 1.8 C 0 km/h
606 03-01-2021 02:25:00 1.7 C 5.17 g/m*3 1.7 C 1.6 km/h
607 03-01-2021 02:30:00 1.7 C 5.17 g/m*3 1.7 C 0 km/h
608 03-01-2021 02:35:00 1.7 C 5.17 g/m*3 1.7 C 1.6 km/h
609 03-01-2021 02:40:00 1.7 C 5.17 g/m*3 1.7 C 1.6 km/h
610 03-01-2021 02:45:00 1.7 C 5.17 g/m*3 1.7 C 3.2 km/h
611 03-01-2021 02:50:00 1.7 C 5.17 g/m*3 -0.22 C 6.4 km/h
612 03-01-2021 02:55:00 1.7 C 5.12 g/m*3 1.7 C 1.6 km/h
613 03-01-2021 03:00:00 1.7 C 5.06 g/m*3 1.7 C 4.8 km/h
614 03-01-2021 03:05:00 1.8 C 5.04 g/m*3 1.8 C 3.2 km/h
615 03-01-2021 03:10:00 1.9 C 5.02 g/m*3 1.9 C 1.6 km/h
616 03-01-2021 03:15:00 1.9 C 5.02 g/m*3 1.9 C 0 km/h
617 03-01-2021 03:20:00 2 C 5.06 g/m*3 2 C 3.2 km/h
618 03-01-2021 03:25:00 2.1 C 5.04 g/m*3 2.1 C 4.8 km/h
619 03-01-2021 03:30:00 2.1 C 5.04 g/m*3 2.1 C 1.6 km/h
620 03-01-2021 03:35:00 2.2 C 5.01 g/m*3 2.2 C 3.2 km/h
621 03-01-2021 03:40:00 2.2 C 5.01 g/m*3 2.2 C 1.6 km/h
622 03-01-2021 03:45:00 2.2 C 5.07 g/m*3 2.2 C 1.6 km/h
623 03-01-2021 03:50:00 2.2 C 5.07 g/m*3 2.2 C 3.2 km/h
624 03-01-2021 03:55:00 2.2 C 5.07 g/m*3 2.2 C 1.6 km/h
625 03-01-2021 04:00:00 2.2 C 5.01 g/m*3 2.2 C 3.2 km/h
Sensor: Nr:Datum:Temp:Abs-Feuchte:Windchill:Wind:
Aussen-T/F 626 03-01-2021 04:05:00 2.2 C 5.01 g/m*3 2.2 C 3.2 km/h
627 03-01-2021 04:10:00 2.3 C 5.05 g/m*3 2.3 C 1.6 km/h
628 03-01-2021 04:15:00 2.3 C 5.05 g/m*3 2.3 C 1.6 km/h
629 03-01-2021 04:20:00 2.3 C 5.05 g/m*3 2.3 C 3.2 km/h
630 03-01-2021 04:25:00 2.3 C 5.05 g/m*3 2.3 C 4.8 km/h
631 03-01-2021 04:30:00 2.3 C 5.05 g/m*3 2.3 C 0 km/h
632 03-01-2021 04:35:00 2.3 C 5.1 g/m*3 2.3 C 3.2 km/h
633 03-01-2021 04:40:00 2.3 C 5.1 g/m*3 2.3 C 1.6 km/h
634 03-01-2021 04:45:00 2.3 C 5.1 g/m*3 2.3 C 1.6 km/h
635 03-01-2021 04:50:00 2.2 C 5.07 g/m*3 2.2 C 1.6 km/h
636 03-01-2021 04:55:00 2.2 C 5.07 g/m*3 0.36 C 6.4 km/h
637 03-01-2021 05:00:00 2.2 C 5.07 g/m*3 2.2 C 0 km/h
638 03-01-2021 05:05:00 2.2 C 5.13 g/m*3 2.2 C 0 km/h
639 03-01-2021 05:10:00 2.1 C 5.09 g/m*3 2.1 C 1.6 km/h
640 03-01-2021 05:15:00 2.1 C 5.09 g/m*3 2.1 C 0 km/h
641 03-01-2021 05:20:00 2.1 C 5.09 g/m*3 2.1 C 0 km/h
642 03-01-2021 05:25:00 2.1 C 5.09 g/m*3 2.1 C 0 km/h
643 03-01-2021 05:30:00 2.1 C 5.09 g/m*3 2.1 C 0 km/h
644 03-01-2021 05:35:00 2.1 C 5.09 g/m*3 2.1 C 1.6 km/h
645 03-01-2021 05:40:00 2.1 C 5.09 g/m*3 2.1 C 1.6 km/h
646 03-01-2021 05:45:00 2.1 C 5.09 g/m*3 2.1 C 1.6 km/h
647 03-01-2021 05:50:00 2.1 C 5.09 g/m*3 2.1 C 0 km/h
648 03-01-2021 05:55:00 2.1 C 5.09 g/m*3 2.1 C 1.6 km/h
649 03-01-2021 06:00:00 2.1 C 5.09 g/m*3 2.1 C 1.6 km/h
650 03-01-2021 06:05:00 2.1 C 5.09 g/m*3 2.1 C 1.6 km/h
Sensor: Nr:Datum:Temp:Abs-Feuchte:Windchill:Wind:
Aussen-T/F 651 03-01-2021 06:10:00 2.1 C 5.09 g/m*3 2.1 C 0 km/h
652 03-01-2021 06:15:00 2.1 C 5.09 g/m*3 2.1 C 1.6 km/h
653 03-01-2021 06:20:00 2.1 C 5.09 g/m*3 2.1 C 0 km/h
654 03-01-2021 06:25:00 2.1 C 5.09 g/m*3 2.1 C 0 km/h
655 03-01-2021 06:30:00 2.1 C 5.09 g/m*3 2.1 C 0 km/h
656 03-01-2021 06:35:00 2.1 C 5.15 g/m*3 2.1 C 1.6 km/h
657 03-01-2021 06:40:00 2 C 5.11 g/m*3 2 C 3.2 km/h
658 03-01-2021 06:45:00 2 C 5.11 g/m*3 2 C 0 km/h
659 03-01-2021 06:50:00 2 C 5.11 g/m*3 2 C 0 km/h
660 03-01-2021 06:55:00 1.9 C 5.02 g/m*3 1.9 C 1.6 km/h
661 03-01-2021 07:00:00 1.9 C 5.02 g/m*3 1.9 C 1.6 km/h
662 03-01-2021 07:05:00 1.9 C 5.02 g/m*3 1.9 C 0 km/h
663 03-01-2021 07:10:00 1.9 C 5.02 g/m*3 1.9 C 1.6 km/h
664 03-01-2021 07:15:00 1.9 C 5.02 g/m*3 1.9 C 3.2 km/h
665 03-01-2021 07:20:00 2 C 5.06 g/m*3 2 C 1.6 km/h
666 03-01-2021 07:25:00 2 C 5.06 g/m*3 2 C 1.6 km/h
667 03-01-2021 07:30:00 2 C 5.06 g/m*3 2 C 0 km/h
668 03-01-2021 07:35:00 2 C 5.06 g/m*3 2 C 1.6 km/h
669 03-01-2021 07:40:00 2 C 5 g/m*3 2 C 0 km/h
670 03-01-2021 07:45:00 2.1 C 5.04 g/m*3 2.1 C 3.2 km/h
671 03-01-2021 07:50:00 2.1 C 4.98 g/m*3 2.1 C 3.2 km/h
672 03-01-2021 07:55:00 2.1 C 4.98 g/m*3 2.1 C 0 km/h
673 03-01-2021 08:00:00 2.2 C 5.01 g/m*3 2.2 C 0 km/h
674 03-01-2021 08:05:00 2.2 C 5.01 g/m*3 2.2 C 3.2 km/h
675 03-01-2021 08:10:00 2.2 C 4.96 g/m*3 2.2 C 1.6 km/h
Sensor: Nr:Datum:Temp:Abs-Feuchte:Windchill:Wind:
Aussen-T/F 676 03-01-2021 08:15:00 2.2 C 4.96 g/m*3 2.2 C 1.6 km/h
677 03-01-2021 08:20:00 2.3 C 4.99 g/m*3 2.3 C 3.2 km/h
678 03-01-2021 08:25:00 2.3 C 4.99 g/m*3 2.3 C 1.6 km/h
679 03-01-2021 08:30:00 2.3 C 4.99 g/m*3 2.3 C 3.2 km/h
680 03-01-2021 08:35:00 2.3 C 4.99 g/m*3 2.3 C 1.6 km/h
681 03-01-2021 08:40:00 2.3 C 4.93 g/m*3 2.3 C 1.6 km/h
682 03-01-2021 08:45:00 2.4 C 5.02 g/m*3 2.4 C 1.6 km/h
683 03-01-2021 08:50:00 2.4 C 5.02 g/m*3 2.4 C 1.6 km/h
684 03-01-2021 08:55:00 2.4 C 4.97 g/m*3 2.4 C 0 km/h
685 03-01-2021 09:00:00 2.4 C 5.02 g/m*3 2.4 C 0 km/h
686 03-01-2021 09:05:00 2.4 C 5.08 g/m*3 2.4 C 0 km/h
687 03-01-2021 09:10:00 2.4 C 5.08 g/m*3 2.4 C 0 km/h
688 03-01-2021 09:15:00 2.4 C 5.08 g/m*3 2.4 C 0 km/h
689 03-01-2021 09:20:00 2.4 C 5.08 g/m*3 2.4 C 0 km/h
690 03-01-2021 09:25:00 2.3 C 5.05 g/m*3 2.3 C 0 km/h
691 03-01-2021 09:30:00 2.3 C 5.1 g/m*3 2.3 C 0 km/h
692 03-01-2021 09:35:00 2.4 C 5.08 g/m*3 2.4 C 0 km/h
693 03-01-2021 09:40:00 2.4 C 5.14 g/m*3 2.4 C 0 km/h
694 03-01-2021 09:45:00 2.3 C 5.1 g/m*3 2.3 C 0 km/h
695 03-01-2021 09:50:00 2.4 C 5.14 g/m*3 2.4 C 0 km/h
696 03-01-2021 09:55:00 2.4 C 5.14 g/m*3 2.4 C 0 km/h
697 03-01-2021 10:00:00 2.4 C 5.14 g/m*3 2.4 C 0 km/h
698 03-01-2021 10:05:00 2.4 C 5.14 g/m*3 2.4 C 1.6 km/h
699 03-01-2021 10:10:00 2.5 C 5.17 g/m*3 2.5 C 1.6 km/h
700 03-01-2021 10:15:00 2.5 C 5.12 g/m*3 2.5 C 1.6 km/h
Sensor: Nr:Datum:Temp:Abs-Feuchte:Windchill:Wind:
Aussen-T/F 701 03-01-2021 10:20:00 2.6 C 5.15 g/m*3 2.6 C 1.6 km/h
702 03-01-2021 10:25:00 2.6 C 5.09 g/m*3 0.29 C 8.1 km/h
703 03-01-2021 10:30:00 2.6 C 5.09 g/m*3 2.6 C 1.6 km/h
704 03-01-2021 10:35:00 2.7 C 5.13 g/m*3 2.7 C 0 km/h
705 03-01-2021 10:40:00 2.7 C 5.13 g/m*3 2.7 C 1.6 km/h
706 03-01-2021 10:45:00 2.7 C 5.07 g/m*3 2.7 C 1.6 km/h
707 03-01-2021 10:50:00 2.8 C 5.1 g/m*3 2.8 C 0 km/h
708 03-01-2021 10:55:00 2.8 C 5.1 g/m*3 2.8 C 0 km/h
709 03-01-2021 11:00:00 2.8 C 5.1 g/m*3 2.8 C 1.6 km/h
710 03-01-2021 11:05:00 2.9 C 5.14 g/m*3 2.9 C 0 km/h
711 03-01-2021 11:10:00 2.9 C 5.14 g/m*3 2.9 C 3.2 km/h
712 03-01-2021 11:15:00 2.9 C 5.14 g/m*3 2.9 C 4.8 km/h
713 03-01-2021 11:20:00 3.1 C 5.21 g/m*3 3.1 C 1.6 km/h
714 03-01-2021 11:25:00 3.1 C 5.15 g/m*3 0.87 C 8.1 km/h
715 03-01-2021 11:30:00 3.1 C 5.15 g/m*3 3.1 C 4.8 km/h
716 03-01-2021 11:35:00 3.2 C 5.18 g/m*3 3.2 C 4.8 km/h
717 03-01-2021 11:40:00 3.2 C 5.18 g/m*3 1.51 C 6.4 km/h
718 03-01-2021 11:45:00 3.2 C 5.18 g/m*3 3.2 C 4.8 km/h
719 03-01-2021 11:50:00 3.3 C 5.22 g/m*3 3.3 C 4.8 km/h
720 03-01-2021 11:55:00 3.3 C 5.22 g/m*3 3.3 C 1.6 km/h
721 03-01-2021 12:00:00 3.3 C 5.22 g/m*3 3.3 C 4.8 km/h
722 03-01-2021 12:05:00 3.3 C 5.22 g/m*3 1.11 C 8.1 km/h
723 03-01-2021 12:10:00 3.3 C 5.16 g/m*3 1.63 C 6.4 km/h
724 03-01-2021 12:15:00 3.4 C 5.19 g/m*3 1.23 C 8.1 km/h
725 03-01-2021 12:20:00 3.4 C 5.19 g/m*3 1.23 C 8.1 km/h
Sensor: Nr:Datum:Temp:Abs-Feuchte:Windchill:Wind:
Aussen-T/F 726 03-01-2021 12:25:00 3.4 C 5.25 g/m*3 1.75 C 6.4 km/h
727 03-01-2021 12:30:00 3.4 C 5.19 g/m*3 3.4 C 4.8 km/h
728 03-01-2021 12:35:00 3.4 C 5.19 g/m*3 1.75 C 6.4 km/h
729 03-01-2021 12:40:00 3.4 C 5.19 g/m*3 3.4 C 4.8 km/h
730 03-01-2021 12:45:00 3.4 C 5.25 g/m*3 1.23 C 8.1 km/h
731 03-01-2021 12:50:00 3.4 C 5.19 g/m*3 1.75 C 6.4 km/h
732 03-01-2021 12:55:00 3.4 C 5.19 g/m*3 0.46 C 11.3 km/h
733 03-01-2021 13:00:00 3.4 C 5.19 g/m*3 0.46 C 11.3 km/h
734 03-01-2021 13:05:00 3.4 C 5.19 g/m*3 3.4 C 3.2 km/h
735 03-01-2021 13:10:00 3.5 C 5.23 g/m*3 3.5 C 4.8 km/h
736 03-01-2021 13:15:00 3.5 C 5.29 g/m*3 3.5 C 3.2 km/h
737 03-01-2021 13:20:00 3.4 C 5.19 g/m*3 3.4 C 4.8 km/h
738 03-01-2021 13:25:00 3.5 C 5.23 g/m*3 3.5 C 4.8 km/h
739 03-01-2021 13:30:00 3.4 C 5.25 g/m*3 3.4 C 1.6 km/h
740 03-01-2021 13:35:00 3.5 C 5.29 g/m*3 3.5 C 4.8 km/h
741 03-01-2021 13:40:00 3.5 C 5.29 g/m*3 3.5 C 0 km/h
742 03-01-2021 13:45:00 3.6 C 5.39 g/m*3 3.6 C 1.6 km/h
743 03-01-2021 13:50:00 3.6 C 5.32 g/m*3 3.6 C 0 km/h
744 03-01-2021 13:55:00 3.6 C 5.32 g/m*3 3.6 C 4.8 km/h
745 03-01-2021 14:00:00 3.6 C 5.32 g/m*3 3.6 C 1.6 km/h
746 03-01-2021 14:05:00 3.6 C 5.39 g/m*3 3.6 C 4.8 km/h
747 03-01-2021 14:10:00 3.6 C 5.32 g/m*3 3.6 C 4.8 km/h
748 03-01-2021 14:15:00 3.6 C 5.32 g/m*3 1.98 C 6.4 km/h
749 03-01-2021 14:20:00 3.7 C 5.3 g/m*3 2.09 C 6.4 km/h
750 03-01-2021 14:25:00 3.7 C 5.36 g/m*3 3.7 C 4.8 km/h
Sensor: Nr:Datum:Temp:Abs-Feuchte:Windchill:Wind:
Aussen-T/F 751 03-01-2021 14:30:00 3.8 C 5.33 g/m*3 2.21 C 6.4 km/h
752 03-01-2021 14:35:00 3.8 C 5.33 g/m*3 3.8 C 4.8 km/h
753 03-01-2021 14:40:00 3.8 C 5.33 g/m*3 3.8 C 3.2 km/h
754 03-01-2021 14:45:00 3.8 C 5.4 g/m*3 2.21 C 6.4 km/h
755 03-01-2021 14:50:00 3.8 C 5.4 g/m*3 1.29 C 9.7 km/h
756 03-01-2021 14:55:00 3.8 C 5.33 g/m*3 1.7 C 8.1 km/h
757 03-01-2021 15:00:00 3.8 C 5.4 g/m*3 2.21 C 6.4 km/h
758 03-01-2021 15:05:00 3.8 C 5.4 g/m*3 2.21 C 6.4 km/h
759 03-01-2021 15:10:00 3.8 C 5.4 g/m*3 3.8 C 4.8 km/h
760 03-01-2021 15:15:00 3.8 C 5.4 g/m*3 3.8 C 3.2 km/h
761 03-01-2021 15:20:00 3.8 C 5.4 g/m*3 3.8 C 3.2 km/h
762 03-01-2021 15:25:00 3.8 C 5.46 g/m*3 3.8 C 1.6 km/h
763 03-01-2021 15:30:00 3.8 C 5.46 g/m*3 3.8 C 1.6 km/h
764 03-01-2021 15:35:00 3.7 C 5.42 g/m*3 3.7 C 0 km/h
765 03-01-2021 15:40:00 3.7 C 5.42 g/m*3 3.7 C 0 km/h
766 03-01-2021 15:45:00 3.7 C 5.42 g/m*3 3.7 C 1.6 km/h
767 03-01-2021 15:50:00 3.7 C 5.48 g/m*3 3.7 C 4.8 km/h
768 03-01-2021 15:55:00 3.6 C 5.39 g/m*3 3.6 C 4.8 km/h
769 03-01-2021 16:00:00 3.6 C 5.45 g/m*3 3.6 C 4.8 km/h
770 03-01-2021 16:05:00 3.6 C 5.45 g/m*3 3.6 C 3.2 km/h
771 03-01-2021 16:10:00 3.6 C 5.45 g/m*3 1.98 C 6.4 km/h
772 03-01-2021 16:15:00 3.6 C 5.45 g/m*3 1.98 C 6.4 km/h
773 03-01-2021 16:20:00 3.6 C 5.45 g/m*3 1.98 C 6.4 km/h
774 03-01-2021 16:25:00 3.6 C 5.45 g/m*3 1.46 C 8.1 km/h
775 03-01-2021 16:30:00 3.5 C 5.41 g/m*3 3.5 C 4.8 km/h
Sensor: Nr:Datum:Temp:Abs-Feuchte:Windchill:Wind:
Aussen-T/F 776 03-01-2021 16:35:00 3.5 C 5.41 g/m*3 3.5 C 4.8 km/h
777 03-01-2021 16:40:00 3.4 C 5.37 g/m*3 3.4 C 1.6 km/h
778 03-01-2021 16:45:00 3.4 C 5.37 g/m*3 3.4 C 1.6 km/h
779 03-01-2021 16:50:00 3.4 C 5.44 g/m*3 3.4 C 0 km/h
780 03-01-2021 16:55:00 3.4 C 5.44 g/m*3 3.4 C 0 km/h
781 03-01-2021 17:00:00 3.4 C 5.44 g/m*3 3.4 C 1.6 km/h
782 03-01-2021 17:05:00 3.4 C 5.44 g/m*3 3.4 C 1.6 km/h
783 03-01-2021 17:10:00 3.3 C 5.4 g/m*3 3.3 C 3.2 km/h
784 03-01-2021 17:15:00 3.3 C 5.4 g/m*3 3.3 C 1.6 km/h
785 03-01-2021 17:20:00 3.3 C 5.46 g/m*3 3.3 C 0 km/h
786 03-01-2021 17:25:00 3.3 C 5.46 g/m*3 3.3 C 0 km/h
787 03-01-2021 17:30:00 3.3 C 5.46 g/m*3 3.3 C 1.6 km/h
788 03-01-2021 17:35:00 3.2 C 5.42 g/m*3 3.2 C 1.6 km/h
789 03-01-2021 17:40:00 3.2 C 5.42 g/m*3 3.2 C 0 km/h
790 03-01-2021 17:45:00 3.2 C 5.42 g/m*3 3.2 C 0 km/h
791 03-01-2021 17:50:00 3.1 C 5.45 g/m*3 3.1 C 0 km/h
792 03-01-2021 17:55:00 3.1 C 5.45 g/m*3 3.1 C 0 km/h
793 03-01-2021 18:00:00 3.1 C 5.45 g/m*3 3.1 C 1.6 km/h
794 03-01-2021 18:05:00 3.1 C 5.45 g/m*3 3.1 C 1.6 km/h
795 03-01-2021 18:10:00 3 C 5.41 g/m*3 3 C 0 km/h
796 03-01-2021 18:15:00 3 C 5.47 g/m*3 3 C 0 km/h
797 03-01-2021 18:20:00 2.9 C 5.43 g/m*3 2.9 C 0 km/h
798 03-01-2021 18:25:00 2.9 C 5.43 g/m*3 2.9 C 0 km/h
799 03-01-2021 18:30:00 2.9 C 5.43 g/m*3 2.9 C 0 km/h
800 03-01-2021 18:35:00 2.9 C 5.43 g/m*3 2.9 C 0 km/h
Sensor: Nr:Datum:Temp:Abs-Feuchte:Windchill:Wind:
Aussen-T/F 801 03-01-2021 18:40:00 2.9 C 5.43 g/m*3 2.9 C 0 km/h
802 03-01-2021 18:45:00 2.8 C 5.4 g/m*3 2.8 C 0 km/h
803 03-01-2021 18:50:00 2.8 C 5.4 g/m*3 2.8 C 0 km/h
804 03-01-2021 18:55:00 2.8 C 5.4 g/m*3 2.8 C 0 km/h
805 03-01-2021 19:00:00 2.8 C 5.46 g/m*3 2.8 C 0 km/h
806 03-01-2021 19:05:00 2.7 C 5.42 g/m*3 2.7 C 0 km/h
807 03-01-2021 19:10:00 2.7 C 5.42 g/m*3 2.7 C 1.6 km/h
808 03-01-2021 19:15:00 2.7 C 5.42 g/m*3 2.7 C 3.2 km/h
809 03-01-2021 19:20:00 2.7 C 5.42 g/m*3 2.7 C 1.6 km/h
810 03-01-2021 19:25:00 2.7 C 5.42 g/m*3 2.7 C 0 km/h
811 03-01-2021 19:30:00 2.7 C 5.42 g/m*3 2.7 C 0 km/h
812 03-01-2021 19:35:00 2.6 C 5.38 g/m*3 2.6 C 0 km/h
813 03-01-2021 19:40:00 2.6 C 5.38 g/m*3 2.6 C 0 km/h
814 03-01-2021 19:45:00 2.6 C 5.38 g/m*3 2.6 C 0 km/h
815 03-01-2021 19:50:00 2.6 C 5.44 g/m*3 2.6 C 0 km/h
816 03-01-2021 19:55:00 2.6 C 5.38 g/m*3 2.6 C 0 km/h
817 03-01-2021 20:00:00 2.6 C 5.44 g/m*3 2.6 C 0 km/h
818 03-01-2021 20:05:00 2.5 C 5.4 g/m*3 2.5 C 0 km/h
819 03-01-2021 20:10:00 2.5 C 5.4 g/m*3 2.5 C 0 km/h
820 03-01-2021 20:15:00 2.5 C 5.4 g/m*3 2.5 C 1.6 km/h
821 03-01-2021 20:20:00 2.5 C 5.4 g/m*3 2.5 C 0 km/h
822 03-01-2021 20:25:00 2.5 C 5.4 g/m*3 2.5 C 0 km/h
823 03-01-2021 20:30:00 2.5 C 5.4 g/m*3 2.5 C 0 km/h
824 03-01-2021 20:35:00 2.5 C 5.4 g/m*3 2.5 C 0 km/h
825 03-01-2021 20:40:00 2.6 C 5.44 g/m*3 2.6 C 0 km/h
Sensor: Nr:Datum:Temp:Abs-Feuchte:Windchill:Wind:
Aussen-T/F 826 03-01-2021 20:45:00 2.5 C 5.4 g/m*3 2.5 C 0 km/h
827 03-01-2021 20:50:00 2.5 C 5.4 g/m*3 2.5 C 0 km/h
828 03-01-2021 20:55:00 2.5 C 5.4 g/m*3 2.5 C 0 km/h
829 03-01-2021 21:00:00 2.5 C 5.4 g/m*3 2.5 C 0 km/h
830 03-01-2021 21:05:00 2.5 C 5.4 g/m*3 2.5 C 1.6 km/h
831 03-01-2021 21:10:00 2.5 C 5.4 g/m*3 2.5 C 0 km/h
832 03-01-2021 21:15:00 2.5 C 5.4 g/m*3 2.5 C 0 km/h
833 03-01-2021 21:20:00 2.4 C 5.37 g/m*3 2.4 C 0 km/h
834 03-01-2021 21:25:00 2.5 C 5.4 g/m*3 2.5 C 3.2 km/h
835 03-01-2021 21:30:00 2.5 C 5.4 g/m*3 2.5 C 0 km/h
836 03-01-2021 21:35:00 2.5 C 5.4 g/m*3 2.5 C 0 km/h
837 03-01-2021 21:40:00 2.5 C 5.4 g/m*3 2.5 C 0 km/h
838 03-01-2021 21:45:00 2.4 C 5.37 g/m*3 2.4 C 0 km/h
839 03-01-2021 21:50:00 2.4 C 5.37 g/m*3 2.4 C 0 km/h
840 03-01-2021 21:55:00 2.4 C 5.37 g/m*3 2.4 C 0 km/h
841 03-01-2021 22:00:00 2.4 C 5.37 g/m*3 2.4 C 0 km/h
842 03-01-2021 22:05:00 2.4 C 5.37 g/m*3 2.4 C 0 km/h
843 03-01-2021 22:10:00 2.4 C 5.37 g/m*3 2.4 C 0 km/h
844 03-01-2021 22:15:00 2.4 C 5.37 g/m*3 2.4 C 0 km/h
845 03-01-2021 22:20:00 2.4 C 5.37 g/m*3 2.4 C 0 km/h
846 03-01-2021 22:25:00 2.4 C 5.37 g/m*3 2.4 C 0 km/h
847 03-01-2021 22:30:00 2.4 C 5.37 g/m*3 2.4 C 0 km/h
848 03-01-2021 22:35:00 2.4 C 5.37 g/m*3 2.4 C 0 km/h
849 03-01-2021 22:40:00 2.4 C 5.37 g/m*3 2.4 C 0 km/h
850 03-01-2021 22:45:00 2.3 C 5.33 g/m*3 2.3 C 0 km/h
Sensor: Nr:Datum:Temp:Abs-Feuchte:Windchill:Wind:
Aussen-T/F 851 03-01-2021 22:50:00 2.3 C 5.33 g/m*3 2.3 C 0 km/h
852 03-01-2021 22:55:00 2.3 C 5.33 g/m*3 2.3 C 0 km/h
853 03-01-2021 23:00:00 2.3 C 5.33 g/m*3 2.3 C 0 km/h
854 03-01-2021 23:05:00 2.3 C 5.33 g/m*3 2.3 C 0 km/h
855 03-01-2021 23:10:00 2.3 C 5.33 g/m*3 2.3 C 0 km/h
856 03-01-2021 23:15:00 2.3 C 5.33 g/m*3 2.3 C 0 km/h
857 03-01-2021 23:20:00 2.3 C 5.33 g/m*3 2.3 C 0 km/h
858 03-01-2021 23:25:00 2.3 C 5.33 g/m*3 2.3 C 0 km/h
859 03-01-2021 23:30:00 2.3 C 5.33 g/m*3 2.3 C 0 km/h
860 03-01-2021 23:35:00 2.3 C 5.33 g/m*3 2.3 C 0 km/h
861 03-01-2021 23:40:00 2.3 C 5.33 g/m*3 2.3 C 0 km/h
862 03-01-2021 23:45:00 2.3 C 5.39 g/m*3 2.3 C 0 km/h
863 03-01-2021 23:50:00 2.3 C 5.39 g/m*3 2.3 C 0 km/h
864 03-01-2021 23:55:00 2.3 C 5.39 g/m*3 2.3 C 0 km/h
865 04-01-2021 00:00:00 2.3 C 5.39 g/m*3 2.3 C 0 km/h
866 04-01-2021 00:05:00 2.3 C 5.39 g/m*3 2.3 C 0 km/h
867 04-01-2021 00:10:00 2.3 C 5.39 g/m*3 2.3 C 0 km/h
868 04-01-2021 00:15:00 2.2 C 5.35 g/m*3 2.2 C 0 km/h
869 04-01-2021 00:20:00 2.2 C 5.35 g/m*3 2.2 C 0 km/h
870 04-01-2021 00:25:00 2.2 C 5.35 g/m*3 2.2 C 0 km/h
871 04-01-2021 00:30:00 2.2 C 5.35 g/m*3 2.2 C 0 km/h
872 04-01-2021 00:35:00 2.2 C 5.35 g/m*3 2.2 C 0 km/h
873 04-01-2021 00:40:00 2.2 C 5.35 g/m*3 2.2 C 0 km/h
874 04-01-2021 00:45:00 2.2 C 5.35 g/m*3 2.2 C 0 km/h
875 04-01-2021 00:50:00 2.2 C 5.35 g/m*3 2.2 C 0 km/h
Sensor: Nr:Datum:Temp:Abs-Feuchte:Windchill:Wind:
Aussen-T/F 876 04-01-2021 00:55:00 2.2 C 5.35 g/m*3 2.2 C 0 km/h
877 04-01-2021 01:00:00 2.2 C 5.35 g/m*3 2.2 C 0 km/h
878 04-01-2021 01:05:00 2.1 C 5.31 g/m*3 2.1 C 0 km/h
879 04-01-2021 01:10:00 2.2 C 5.35 g/m*3 2.2 C 0 km/h
880 04-01-2021 01:15:00 2.1 C 5.31 g/m*3 2.1 C 0 km/h
881 04-01-2021 01:20:00 2.1 C 5.31 g/m*3 2.1 C 0 km/h
882 04-01-2021 01:25:00 2.1 C 5.31 g/m*3 2.1 C 0 km/h
883 04-01-2021 01:30:00 2.1 C 5.31 g/m*3 2.1 C 0 km/h
884 04-01-2021 01:35:00 2.1 C 5.31 g/m*3 2.1 C 0 km/h
885 04-01-2021 01:40:00 2 C 5.28 g/m*3 2 C 0 km/h
886 04-01-2021 01:45:00 2 C 5.28 g/m*3 2 C 0 km/h
887 04-01-2021 01:50:00 1.9 C 5.24 g/m*3 1.9 C 0 km/h
888 04-01-2021 01:55:00 1.9 C 5.24 g/m*3 1.9 C 0 km/h
889 04-01-2021 02:00:00 1.9 C 5.24 g/m*3 1.9 C 0 km/h
890 04-01-2021 02:05:00 1.9 C 5.24 g/m*3 1.9 C 0 km/h
891 04-01-2021 02:10:00 1.9 C 5.24 g/m*3 1.9 C 0 km/h
892 04-01-2021 02:15:00 1.9 C 5.24 g/m*3 1.9 C 0 km/h
893 04-01-2021 02:20:00 1.9 C 5.24 g/m*3 1.9 C 0 km/h
894 04-01-2021 02:25:00 1.9 C 5.24 g/m*3 1.9 C 1.6 km/h
895 04-01-2021 02:30:00 1.8 C 5.21 g/m*3 1.8 C 0 km/h
896 04-01-2021 02:35:00 1.9 C 5.24 g/m*3 1.9 C 0 km/h
897 04-01-2021 02:40:00 1.8 C 5.21 g/m*3 1.8 C 0 km/h
898 04-01-2021 02:45:00 1.8 C 5.21 g/m*3 1.8 C 0 km/h
899 04-01-2021 02:50:00 1.8 C 5.21 g/m*3 1.8 C 0 km/h
900 04-01-2021 02:55:00 1.8 C 5.21 g/m*3 1.8 C 0 km/h
Sensor: Nr:Datum:Temp:Abs-Feuchte:Windchill:Wind:
Aussen-T/F 901 04-01-2021 03:00:00 1.8 C 5.21 g/m*3 1.8 C 1.6 km/h
902 04-01-2021 03:05:00 1.8 C 5.21 g/m*3 1.8 C 0 km/h
903 04-01-2021 03:10:00 1.8 C 5.21 g/m*3 1.8 C 0 km/h
904 04-01-2021 03:15:00 1.8 C 5.21 g/m*3 1.8 C 0 km/h
905 04-01-2021 03:20:00 1.8 C 5.21 g/m*3 1.8 C 0 km/h
906 04-01-2021 03:25:00 1.8 C 5.21 g/m*3 1.8 C 0 km/h
907 04-01-2021 03:30:00 1.8 C 5.21 g/m*3 1.8 C 0 km/h
908 04-01-2021 03:35:00 1.8 C 5.21 g/m*3 1.8 C 0 km/h
909 04-01-2021 03:40:00 1.8 C 5.21 g/m*3 1.8 C 0 km/h
910 04-01-2021 03:45:00 1.8 C 5.21 g/m*3 1.8 C 0 km/h
911 04-01-2021 03:50:00 1.7 C 5.17 g/m*3 1.7 C 0 km/h
912 04-01-2021 03:55:00 1.7 C 5.17 g/m*3 1.7 C 0 km/h
913 04-01-2021 04:00:00 1.7 C 5.17 g/m*3 1.7 C 0 km/h
914 04-01-2021 04:05:00 1.7 C 5.17 g/m*3 1.7 C 0 km/h
915 04-01-2021 04:10:00 1.7 C 5.17 g/m*3 1.7 C 0 km/h
916 04-01-2021 04:15:00 1.7 C 5.23 g/m*3 1.7 C 0 km/h
917 04-01-2021 04:20:00 1.6 C 5.19 g/m*3 1.6 C 0 km/h
918 04-01-2021 04:25:00 1.6 C 5.19 g/m*3 1.6 C 0 km/h
919 04-01-2021 04:30:00 1.6 C 5.19 g/m*3 1.6 C 0 km/h
920 04-01-2021 04:35:00 1.6 C 5.19 g/m*3 1.6 C 0 km/h
921 04-01-2021 04:40:00 1.6 C 5.19 g/m*3 1.6 C 0 km/h
922 04-01-2021 04:45:00 1.6 C 5.19 g/m*3 1.6 C 0 km/h
923 04-01-2021 04:50:00 1.6 C 5.19 g/m*3 1.6 C 0 km/h
924 04-01-2021 04:55:00 1.6 C 5.19 g/m*3 1.6 C 0 km/h
925 04-01-2021 05:00:00 1.6 C 5.19 g/m*3 1.6 C 0 km/h
Sensor: Nr:Datum:Temp:Abs-Feuchte:Windchill:Wind:
Aussen-T/F 926 04-01-2021 05:05:00 1.5 C 5.16 g/m*3 1.5 C 0 km/h
927 04-01-2021 05:10:00 1.5 C 5.16 g/m*3 1.5 C 0 km/h
928 04-01-2021 05:15:00 1.5 C 5.16 g/m*3 1.5 C 0 km/h
929 04-01-2021 05:20:00 1.5 C 5.1 g/m*3 1.5 C 0 km/h
930 04-01-2021 05:25:00 1.4 C 5.07 g/m*3 1.4 C 0 km/h
931 04-01-2021 05:30:00 1.4 C 5.07 g/m*3 1.4 C 0 km/h
932 04-01-2021 05:35:00 1.3 C 5.03 g/m*3 1.3 C 0 km/h
933 04-01-2021 05:40:00 1.3 C 5.03 g/m*3 1.3 C 0 km/h
934 04-01-2021 05:45:00 1.3 C 5.09 g/m*3 1.3 C 0 km/h
935 04-01-2021 05:50:00 1.2 C 5.05 g/m*3 1.2 C 0 km/h
936 04-01-2021 05:55:00 1.2 C 5.05 g/m*3 1.2 C 0 km/h
937 04-01-2021 06:00:00 1.2 C 5.05 g/m*3 1.2 C 0 km/h
938 04-01-2021 06:05:00 1.1 C 5.02 g/m*3 1.1 C 0 km/h
939 04-01-2021 06:10:00 1.1 C 4.96 g/m*3 1.1 C 0 km/h
940 04-01-2021 06:15:00 1.1 C 4.96 g/m*3 1.1 C 0 km/h
941 04-01-2021 06:20:00 1.1 C 4.96 g/m*3 1.1 C 0 km/h
942 04-01-2021 06:25:00 1.1 C 5.02 g/m*3 1.1 C 0 km/h
943 04-01-2021 06:30:00 1.1 C 5.02 g/m*3 1.1 C 0 km/h
944 04-01-2021 06:35:00 1 C 4.98 g/m*3 1 C 0 km/h
945 04-01-2021 06:40:00 1 C 4.98 g/m*3 1 C 0 km/h
946 04-01-2021 06:45:00 1 C 4.98 g/m*3 1 C 0 km/h
947 04-01-2021 06:50:00 1 C 4.98 g/m*3 1 C 0 km/h
948 04-01-2021 06:55:00 1 C 4.98 g/m*3 1 C 0 km/h
949 04-01-2021 07:00:00 1 C 4.98 g/m*3 1 C 0 km/h
950 04-01-2021 07:05:00 0.9 C 4.95 g/m*3 0.9 C 0 km/h
Sensor: Nr:Datum:Temp:Abs-Feuchte:Windchill:Wind:
Aussen-T/F 951 04-01-2021 07:10:00 0.9 C 4.95 g/m*3 0.9 C 0 km/h
952 04-01-2021 07:15:00 0.9 C 4.95 g/m*3 0.9 C 0 km/h
953 04-01-2021 07:20:00 0.9 C 4.95 g/m*3 0.9 C 0 km/h
954 04-01-2021 07:25:00 0.9 C 4.95 g/m*3 0.9 C 0 km/h
955 04-01-2021 07:30:00 0.9 C 4.95 g/m*3 0.9 C 0 km/h
956 04-01-2021 07:35:00 0.9 C 4.95 g/m*3 0.9 C 0 km/h
957 04-01-2021 07:40:00 0.9 C 4.95 g/m*3 0.9 C 0 km/h
958 04-01-2021 07:45:00 0.9 C 4.95 g/m*3 0.9 C 0 km/h
959 04-01-2021 07:50:00 0.9 C 4.95 g/m*3 0.9 C 0 km/h
960 04-01-2021 07:55:00 0.9 C 4.95 g/m*3 0.9 C 0 km/h
961 04-01-2021 08:00:00 0.9 C 4.95 g/m*3 0.9 C 0 km/h
962 04-01-2021 08:05:00 0.9 C 4.95 g/m*3 0.9 C 0 km/h
963 04-01-2021 08:10:00 0.9 C 4.95 g/m*3 0.9 C 0 km/h
964 04-01-2021 08:15:00 0.9 C 4.95 g/m*3 0.9 C 0 km/h
965 04-01-2021 08:20:00 0.9 C 4.95 g/m*3 0.9 C 0 km/h
966 04-01-2021 08:25:00 1 C 4.98 g/m*3 1 C 0 km/h
967 04-01-2021 08:30:00 1 C 4.98 g/m*3 1 C 0 km/h
968 04-01-2021 08:35:00 1 C 4.98 g/m*3 1 C 0 km/h
969 04-01-2021 08:40:00 1 C 4.98 g/m*3 1 C 0 km/h
970 04-01-2021 08:45:00 1 C 4.98 g/m*3 1 C 0 km/h
971 04-01-2021 08:50:00 1 C 4.98 g/m*3 1 C 0 km/h
972 04-01-2021 08:55:00 1.1 C 5.02 g/m*3 1.1 C 0 km/h
973 04-01-2021 09:00:00 1.1 C 5.02 g/m*3 1.1 C 0 km/h
974 04-01-2021 09:05:00 1.1 C 5.02 g/m*3 1.1 C 0 km/h
975 04-01-2021 09:10:00 1.1 C 5.02 g/m*3 1.1 C 0 km/h
Sensor: Nr:Datum:Temp:Abs-Feuchte:Windchill:Wind:
Aussen-T/F 976 04-01-2021 09:15:00 1.1 C 5.02 g/m*3 1.1 C 0 km/h
977 04-01-2021 09:20:00 1.1 C 5.02 g/m*3 1.1 C 0 km/h
978 04-01-2021 09:25:00 1.1 C 5.02 g/m*3 1.1 C 0 km/h
979 04-01-2021 09:30:00 1.1 C 5.02 g/m*3 1.1 C 0 km/h
980 04-01-2021 09:35:00 1.2 C 5.05 g/m*3 1.2 C 0 km/h
981 04-01-2021 09:40:00 1.2 C 5.05 g/m*3 1.2 C 0 km/h
982 04-01-2021 09:45:00 1.2 C 5.05 g/m*3 1.2 C 0 km/h
983 04-01-2021 09:50:00 1.2 C 5.05 g/m*3 1.2 C 0 km/h
984 04-01-2021 09:55:00 1.2 C 5.05 g/m*3 1.2 C 0 km/h
985 04-01-2021 10:00:00 1.2 C 5.05 g/m*3 1.2 C 0 km/h
986 04-01-2021 10:05:00 1.2 C 5.05 g/m*3 1.2 C 1.6 km/h
987 04-01-2021 10:10:00 1.3 C 5.09 g/m*3 1.3 C 0 km/h
988 04-01-2021 10:15:00 1.3 C 5.09 g/m*3 1.3 C 0 km/h
989 04-01-2021 10:20:00 1.3 C 5.09 g/m*3 1.3 C 0 km/h
990 04-01-2021 10:25:00 1.3 C 5.09 g/m*3 1.3 C 0 km/h
991 04-01-2021 10:30:00 1.3 C 5.09 g/m*3 1.3 C 0 km/h
992 04-01-2021 10:35:00 1.3 C 5.09 g/m*3 1.3 C 0 km/h
993 04-01-2021 10:40:00 1.4 C 5.12 g/m*3 1.4 C 0 km/h
994 04-01-2021 10:45:00 1.4 C 5.12 g/m*3 1.4 C 0 km/h
995 04-01-2021 10:50:00 1.4 C 5.12 g/m*3 1.4 C 0 km/h
996 04-01-2021 10:55:00 1.4 C 5.12 g/m*3 1.4 C 0 km/h
997 04-01-2021 11:00:00 1.4 C 5.12 g/m*3 1.4 C 0 km/h
998 04-01-2021 11:05:00 1.5 C 5.16 g/m*3 1.5 C 0 km/h
999 04-01-2021 11:10:00 1.5 C 5.16 g/m*3 1.5 C 0 km/h
1000 04-01-2021 11:15:00 1.6 C 5.19 g/m*3 1.6 C 0 km/h
Sensor: Nr:Datum:Temp:Abs-Feuchte:Windchill:Wind:
Aussen-T/F 1001 04-01-2021 11:20:00 1.6 C 5.25 g/m*3 1.6 C 0 km/h
1002 04-01-2021 11:25:00 1.6 C 5.25 g/m*3 1.6 C 0 km/h
1003 04-01-2021 11:30:00 1.6 C 5.25 g/m*3 1.6 C 0 km/h
1004 04-01-2021 11:35:00 1.7 C 5.28 g/m*3 1.7 C 0 km/h
1005 04-01-2021 11:40:00 1.7 C 5.28 g/m*3 1.7 C 0 km/h
1006 04-01-2021 11:45:00 1.7 C 5.28 g/m*3 1.7 C 0 km/h
1007 04-01-2021 11:50:00 1.7 C 5.28 g/m*3 1.7 C 0 km/h
1008 04-01-2021 11:55:00 1.7 C 5.28 g/m*3 1.7 C 0 km/h
1009 04-01-2021 12:00:00 1.7 C 5.28 g/m*3 1.7 C 0 km/h
1010 04-01-2021 12:05:00 1.7 C 5.28 g/m*3 1.7 C 0 km/h
1011 04-01-2021 12:10:00 1.8 C 5.32 g/m*3 1.8 C 1.6 km/h
1012 04-01-2021 12:15:00 1.8 C 5.32 g/m*3 1.8 C 0 km/h
1013 04-01-2021 12:20:00 1.8 C 5.32 g/m*3 1.8 C 0 km/h
1014 04-01-2021 12:25:00 1.8 C 5.32 g/m*3 1.8 C 0 km/h
1015 04-01-2021 12:30:00 1.8 C 5.32 g/m*3 1.8 C 0 km/h
1016 04-01-2021 12:35:00 1.8 C 5.32 g/m*3 1.8 C 0 km/h
1017 04-01-2021 12:40:00 1.9 C 5.35 g/m*3 1.9 C 0 km/h
1018 04-01-2021 12:45:00 1.9 C 5.35 g/m*3 1.9 C 0 km/h
1019 04-01-2021 12:50:00 1.9 C 5.35 g/m*3 1.9 C 0 km/h
1020 04-01-2021 12:55:00 1.9 C 5.35 g/m*3 1.9 C 0 km/h
1021 04-01-2021 13:00:00 1.9 C 5.35 g/m*3 1.9 C 0 km/h
1022 04-01-2021 13:05:00 1.9 C 5.35 g/m*3 1.9 C 3.2 km/h
1023 04-01-2021 13:10:00 1.9 C 5.35 g/m*3 1.9 C 0 km/h
1024 04-01-2021 13:15:00 2 C 5.39 g/m*3 2 C 0 km/h
1025 04-01-2021 13:20:00 2 C 5.39 g/m*3 2 C 0 km/h
Sensor: Nr:Datum:Temp:Abs-Feuchte:Windchill:Wind:
Aussen-T/F 1026 04-01-2021 13:25:00 2 C 5.39 g/m*3 2 C 0 km/h
1027 04-01-2021 13:30:00 2 C 5.39 g/m*3 2 C 1.6 km/h
1028 04-01-2021 13:35:00 2 C 5.39 g/m*3 2 C 0 km/h
1029 04-01-2021 13:40:00 2 C 5.39 g/m*3 2 C 0 km/h
1030 04-01-2021 13:45:00 2 C 5.39 g/m*3 2 C 0 km/h
1031 04-01-2021 13:50:00 2 C 5.39 g/m*3 2 C 0 km/h
1032 04-01-2021 13:55:00 2 C 5.39 g/m*3 2 C 1.6 km/h
1033 04-01-2021 14:00:00 2 C 5.39 g/m*3 2 C 0 km/h
1034 04-01-2021 14:05:00 2 C 5.39 g/m*3 2 C 0 km/h
1035 04-01-2021 14:10:00 2.1 C 5.43 g/m*3 2.1 C 0 km/h
1036 04-01-2021 14:15:00 2.1 C 5.43 g/m*3 2.1 C 0 km/h
1037 04-01-2021 14:20:00 2.1 C 5.43 g/m*3 2.1 C 0 km/h
1038 04-01-2021 14:25:00 2 C 5.39 g/m*3 2 C 1.6 km/h
1039 04-01-2021 14:30:00 2 C 5.39 g/m*3 2 C 0 km/h
1040 04-01-2021 14:35:00 2 C 5.39 g/m*3 2 C 1.6 km/h
1041 04-01-2021 14:40:00 2 C 5.39 g/m*3 2 C 0 km/h
1042 04-01-2021 14:45:00 2 C 5.39 g/m*3 2 C 0 km/h
1043 04-01-2021 14:50:00 2 C 5.39 g/m*3 2 C 0 km/h
1044 04-01-2021 14:55:00 2 C 5.39 g/m*3 2 C 0 km/h
1045 04-01-2021 15:00:00 2 C 5.39 g/m*3 2 C 0 km/h
1046 04-01-2021 15:05:00 2 C 5.39 g/m*3 2 C 0 km/h
1047 04-01-2021 15:10:00 2 C 5.39 g/m*3 2 C 0 km/h
1048 04-01-2021 15:15:00 2 C 5.39 g/m*3 2 C 0 km/h
1049 04-01-2021 15:20:00 2 C 5.39 g/m*3 2 C 0 km/h
1050 04-01-2021 15:25:00 2 C 5.39 g/m*3 2 C 0 km/h
Sensor: Nr:Datum:Temp:Abs-Feuchte:Windchill:Wind:
Aussen-T/F 1051 04-01-2021 15:30:00 2 C 5.39 g/m*3 2 C 0 km/h
1052 04-01-2021 15:35:00 2 C 5.39 g/m*3 2 C 0 km/h
1053 04-01-2021 15:40:00 2 C 5.39 g/m*3 2 C 1.6 km/h
1054 04-01-2021 15:45:00 2 C 5.39 g/m*3 2 C 0 km/h
1055 04-01-2021 15:50:00 2 C 5.39 g/m*3 2 C 1.6 km/h
1056 04-01-2021 15:55:00 2 C 5.39 g/m*3 2 C 0 km/h
1057 04-01-2021 16:00:00 2 C 5.39 g/m*3 2 C 0 km/h
1058 04-01-2021 16:05:00 2 C 5.39 g/m*3 2 C 0 km/h
1059 04-01-2021 16:10:00 2 C 5.39 g/m*3 2 C 0 km/h
1060 04-01-2021 16:15:00 2 C 5.39 g/m*3 2 C 0 km/h
1061 04-01-2021 16:20:00 1.9 C 5.35 g/m*3 1.9 C 0 km/h
1062 04-01-2021 16:25:00 1.9 C 5.35 g/m*3 1.9 C 0 km/h
1063 04-01-2021 16:30:00 1.9 C 5.35 g/m*3 1.9 C 0 km/h
1064 04-01-2021 16:35:00 1.9 C 5.35 g/m*3 1.9 C 0 km/h
1065 04-01-2021 16:40:00 1.9 C 5.35 g/m*3 1.9 C 0 km/h
1066 04-01-2021 16:45:00 1.9 C 5.35 g/m*3 1.9 C 0 km/h
1067 04-01-2021 16:50:00 1.9 C 5.35 g/m*3 1.9 C 0 km/h
1068 04-01-2021 16:55:00 1.9 C 5.35 g/m*3 1.9 C 0 km/h
1069 04-01-2021 17:00:00 1.9 C 5.35 g/m*3 1.9 C 0 km/h
1070 04-01-2021 17:05:00 1.8 C 5.32 g/m*3 1.8 C 0 km/h
1071 04-01-2021 17:10:00 1.8 C 5.32 g/m*3 1.8 C 0 km/h
1072 04-01-2021 17:15:00 1.8 C 5.32 g/m*3 1.8 C 0 km/h
1073 04-01-2021 17:20:00 1.8 C 5.32 g/m*3 1.8 C 0 km/h
1074 04-01-2021 17:25:00 1.8 C 5.32 g/m*3 1.8 C 0 km/h
1075 04-01-2021 17:30:00 1.8 C 5.32 g/m*3 1.8 C 0 km/h
Sensor: Nr:Datum:Temp:Abs-Feuchte:Windchill:Wind:
Aussen-T/F 1076 04-01-2021 17:35:00 1.8 C 5.32 g/m*3 1.8 C 0 km/h
1077 04-01-2021 17:40:00 1.8 C 5.32 g/m*3 1.8 C 0 km/h
1078 04-01-2021 17:45:00 1.8 C 5.32 g/m*3 1.8 C 0 km/h
1079 04-01-2021 17:50:00 1.8 C 5.32 g/m*3 1.8 C 0 km/h
1080 04-01-2021 17:55:00 1.8 C 5.32 g/m*3 1.8 C 0 km/h
1081 04-01-2021 18:00:00 1.8 C 5.32 g/m*3 1.8 C 0 km/h
1082 04-01-2021 18:05:00 1.8 C 5.32 g/m*3 1.8 C 0 km/h
1083 04-01-2021 18:10:00 1.8 C 5.32 g/m*3 1.8 C 1.6 km/h
1084 04-01-2021 18:15:00 1.8 C 5.32 g/m*3 1.8 C 3.2 km/h
1085 04-01-2021 18:20:00 1.8 C 5.32 g/m*3 1.8 C 3.2 km/h
1086 04-01-2021 18:25:00 1.8 C 5.32 g/m*3 1.8 C 0 km/h
1087 04-01-2021 18:30:00 1.8 C 5.32 g/m*3 1.8 C 0 km/h
1088 04-01-2021 18:35:00 1.8 C 5.32 g/m*3 1.8 C 0 km/h
1089 04-01-2021 18:40:00 1.8 C 5.32 g/m*3 1.8 C 0 km/h
1090 04-01-2021 18:45:00 1.8 C 5.32 g/m*3 1.8 C 0 km/h
1091 04-01-2021 18:50:00 1.8 C 5.32 g/m*3 1.8 C 0 km/h
1092 04-01-2021 18:55:00 1.8 C 5.32 g/m*3 1.8 C 0 km/h
1093 04-01-2021 19:00:00 1.8 C 5.32 g/m*3 1.8 C 0 km/h
1094 04-01-2021 19:05:00 1.8 C 5.32 g/m*3 1.8 C 3.2 km/h
1095 04-01-2021 19:10:00 1.8 C 5.32 g/m*3 1.8 C 3.2 km/h
1096 04-01-2021 19:15:00 1.8 C 5.32 g/m*3 1.8 C 1.6 km/h
1097 04-01-2021 19:20:00 1.8 C 5.32 g/m*3 1.8 C 3.2 km/h
1098 04-01-2021 19:25:00 1.8 C 5.32 g/m*3 1.8 C 1.6 km/h
1099 04-01-2021 19:30:00 1.8 C 5.32 g/m*3 1.8 C 0 km/h
1100 04-01-2021 19:35:00 1.8 C 5.32 g/m*3 1.8 C 0 km/h
Sensor: Nr:Datum:Temp:Abs-Feuchte:Windchill:Wind:
Aussen-T/F 1101 04-01-2021 19:40:00 1.8 C 5.32 g/m*3 1.8 C 0 km/h
1102 04-01-2021 19:45:00 1.8 C 5.32 g/m*3 1.8 C 0 km/h
1103 04-01-2021 19:50:00 1.8 C 5.32 g/m*3 1.8 C 0 km/h
1104 04-01-2021 19:55:00 1.8 C 5.32 g/m*3 1.8 C 0 km/h
1105 04-01-2021 20:00:00 1.8 C 5.32 g/m*3 1.8 C 0 km/h
1106 04-01-2021 20:05:00 1.8 C 5.32 g/m*3 1.8 C 0 km/h
1107 04-01-2021 20:10:00 1.8 C 5.32 g/m*3 1.8 C 0 km/h
1108 04-01-2021 20:15:00 1.8 C 5.32 g/m*3 1.8 C 0 km/h
1109 04-01-2021 20:20:00 1.7 C 5.28 g/m*3 1.7 C 0 km/h
1110 04-01-2021 20:25:00 1.7 C 5.28 g/m*3 1.7 C 0 km/h
1111 04-01-2021 20:30:00 1.7 C 5.28 g/m*3 1.7 C 0 km/h
1112 04-01-2021 20:35:00 1.8 C 5.32 g/m*3 1.8 C 0 km/h
1113 04-01-2021 20:40:00 1.8 C 5.32 g/m*3 1.8 C 0 km/h
1114 04-01-2021 20:45:00 1.7 C 5.28 g/m*3 1.7 C 0 km/h
1115 04-01-2021 20:50:00 1.7 C 5.28 g/m*3 1.7 C 0 km/h
1116 04-01-2021 20:55:00 1.7 C 5.28 g/m*3 1.7 C 0 km/h
1117 04-01-2021 21:00:00 1.7 C 5.28 g/m*3 1.7 C 0 km/h
1118 04-01-2021 21:05:00 1.7 C 5.28 g/m*3 1.7 C 0 km/h
1119 04-01-2021 21:10:00 1.7 C 5.28 g/m*3 1.7 C 0 km/h
1120 04-01-2021 21:15:00 1.7 C 5.28 g/m*3 1.7 C 0 km/h
1121 04-01-2021 21:20:00 1.7 C 5.28 g/m*3 1.7 C 0 km/h
1122 04-01-2021 21:25:00 1.7 C 5.28 g/m*3 1.7 C 0 km/h
1123 04-01-2021 21:30:00 1.7 C 5.28 g/m*3 1.7 C 0 km/h
1124 04-01-2021 21:35:00 1.8 C 5.32 g/m*3 1.8 C 0 km/h
1125 04-01-2021 21:40:00 1.7 C 5.28 g/m*3 1.7 C 0 km/h
Sensor: Nr:Datum:Temp:Abs-Feuchte:Windchill:Wind:
Aussen-T/F 1126 04-01-2021 21:45:00 1.7 C 5.28 g/m*3 1.7 C 0 km/h
1127 04-01-2021 21:50:00 1.7 C 5.28 g/m*3 1.7 C 0 km/h
1128 04-01-2021 21:55:00 1.7 C 5.28 g/m*3 1.7 C 0 km/h
1129 04-01-2021 22:00:00 1.7 C 5.28 g/m*3 1.7 C 0 km/h
1130 04-01-2021 22:05:00 1.7 C 5.28 g/m*3 1.7 C 0 km/h
1131 04-01-2021 22:10:00 1.7 C 5.28 g/m*3 1.7 C 0 km/h
1132 04-01-2021 22:15:00 1.8 C 5.32 g/m*3 1.8 C 0 km/h
1133 04-01-2021 22:20:00 1.8 C 5.32 g/m*3 1.8 C 0 km/h
1134 04-01-2021 22:25:00 1.8 C 5.32 g/m*3 1.8 C 0 km/h
1135 04-01-2021 22:30:00 1.8 C 5.32 g/m*3 1.8 C 0 km/h
1136 04-01-2021 22:35:00 1.8 C 5.32 g/m*3 1.8 C 0 km/h
1137 04-01-2021 22:40:00 1.8 C 5.32 g/m*3 1.8 C 0 km/h
1138 04-01-2021 22:45:00 1.8 C 5.32 g/m*3 1.8 C 0 km/h
1139 04-01-2021 22:50:00 1.8 C 5.32 g/m*3 1.8 C 0 km/h
1140 04-01-2021 22:55:00 1.8 C 5.32 g/m*3 1.8 C 0 km/h
1141 04-01-2021 23:00:00 1.8 C 5.32 g/m*3 1.8 C 0 km/h
1142 04-01-2021 23:05:00 1.8 C 5.32 g/m*3 1.8 C 0 km/h
1143 04-01-2021 23:10:00 1.8 C 5.32 g/m*3 1.8 C 0 km/h
1144 04-01-2021 23:15:00 1.8 C 5.32 g/m*3 1.8 C 0 km/h
1145 04-01-2021 23:20:00 1.8 C 5.32 g/m*3 1.8 C 0 km/h
1146 04-01-2021 23:25:00 1.8 C 5.32 g/m*3 1.8 C 0 km/h
1147 04-01-2021 23:30:00 1.8 C 5.32 g/m*3 1.8 C 0 km/h
1148 04-01-2021 23:35:00 1.8 C 5.32 g/m*3 1.8 C 0 km/h
1149 04-01-2021 23:40:00 1.8 C 5.32 g/m*3 1.8 C 0 km/h
1150 04-01-2021 23:45:00 1.8 C 5.32 g/m*3 1.8 C 1.6 km/h
Sensor: Nr:Datum:Temp:Abs-Feuchte:Windchill:Wind:
Aussen-T/F 1151 04-01-2021 23:50:00 1.8 C 5.32 g/m*3 1.8 C 0 km/h
1152 04-01-2021 23:55:00 1.8 C 5.32 g/m*3 1.8 C 4.8 km/h
1153 05-01-2021 00:00:00 1.8 C 5.32 g/m*3 1.8 C 3.2 km/h
1154 05-01-2021 00:05:00 1.8 C 5.32 g/m*3 1.8 C 1.6 km/h
1155 05-01-2021 00:10:00 1.8 C 5.32 g/m*3 1.8 C 0 km/h
1156 05-01-2021 00:15:00 1.8 C 5.32 g/m*3 1.8 C 0 km/h
1157 05-01-2021 00:20:00 1.8 C 5.32 g/m*3 1.8 C 0 km/h
1158 05-01-2021 00:25:00 1.8 C 5.32 g/m*3 1.8 C 0 km/h
1159 05-01-2021 00:30:00 1.8 C 5.32 g/m*3 1.8 C 0 km/h
1160 05-01-2021 00:35:00 1.9 C 5.35 g/m*3 1.9 C 0 km/h
1161 05-01-2021 00:40:00 1.9 C 5.35 g/m*3 1.9 C 0 km/h
1162 05-01-2021 00:45:00 1.9 C 5.35 g/m*3 1.9 C 0 km/h
1163 05-01-2021 00:50:00 1.9 C 5.35 g/m*3 1.9 C 0 km/h
1164 05-01-2021 00:55:00 1.9 C 5.35 g/m*3 1.9 C 0 km/h
1165 05-01-2021 01:00:00 1.9 C 5.35 g/m*3 1.9 C 0 km/h
1166 05-01-2021 01:05:00 1.9 C 5.35 g/m*3 1.9 C 0 km/h
1167 05-01-2021 01:10:00 1.9 C 5.35 g/m*3 1.9 C 1.6 km/h
1168 05-01-2021 01:15:00 1.9 C 5.35 g/m*3 1.9 C 0 km/h
1169 05-01-2021 01:20:00 1.9 C 5.35 g/m*3 1.9 C 1.6 km/h
1170 05-01-2021 01:25:00 1.9 C 5.35 g/m*3 1.9 C 0 km/h
1171 05-01-2021 01:30:00 1.9 C 5.35 g/m*3 1.9 C 0 km/h
1172 05-01-2021 01:35:00 1.9 C 5.35 g/m*3 1.9 C 0 km/h
1173 05-01-2021 01:40:00 1.9 C 5.35 g/m*3 1.9 C 0 km/h
1174 05-01-2021 01:45:00 1.9 C 5.35 g/m*3 1.9 C 0 km/h
1175 05-01-2021 01:50:00 1.9 C 5.35 g/m*3 1.9 C 0 km/h
Sensor: Nr:Datum:Temp:Abs-Feuchte:Windchill:Wind:
Aussen-T/F 1176 05-01-2021 01:55:00 1.9 C 5.35 g/m*3 1.9 C 1.6 km/h
1177 05-01-2021 02:00:00 1.9 C 5.35 g/m*3 1.9 C 0 km/h
1178 05-01-2021 02:05:00 1.9 C 5.35 g/m*3 1.9 C 0 km/h
1179 05-01-2021 02:10:00 1.9 C 5.35 g/m*3 1.9 C 1.6 km/h
1180 05-01-2021 02:15:00 1.9 C 5.35 g/m*3 1.9 C 0 km/h
1181 05-01-2021 02:20:00 1.9 C 5.35 g/m*3 1.9 C 0 km/h
1182 05-01-2021 02:25:00 1.9 C 5.35 g/m*3 1.9 C 0 km/h
1183 05-01-2021 02:30:00 1.9 C 5.35 g/m*3 1.9 C 1.6 km/h
1184 05-01-2021 02:35:00 1.9 C 5.35 g/m*3 1.9 C 3.2 km/h
1185 05-01-2021 02:40:00 1.9 C 5.35 g/m*3 1.9 C 0 km/h
1186 05-01-2021 02:45:00 1.9 C 5.35 g/m*3 1.9 C 0 km/h
1187 05-01-2021 02:50:00 1.9 C 5.35 g/m*3 1.9 C 0 km/h
1188 05-01-2021 02:55:00 1.9 C 5.35 g/m*3 1.9 C 0 km/h
1189 05-01-2021 03:00:00 2 C 5.39 g/m*3 2 C 0 km/h
1190 05-01-2021 03:05:00 2 C 5.39 g/m*3 2 C 0 km/h
1191 05-01-2021 03:10:00 2 C 5.39 g/m*3 2 C 0 km/h
1192 05-01-2021 03:15:00 2 C 5.39 g/m*3 2 C 0 km/h
1193 05-01-2021 03:20:00 1.9 C 5.35 g/m*3 1.9 C 0 km/h
1194 05-01-2021 03:25:00 2 C 5.39 g/m*3 2 C 0 km/h
1195 05-01-2021 03:30:00 2 C 5.39 g/m*3 2 C 0 km/h
1196 05-01-2021 03:35:00 2 C 5.39 g/m*3 2 C 0 km/h
1197 05-01-2021 03:40:00 2 C 5.39 g/m*3 2 C 0 km/h
1198 05-01-2021 03:45:00 2 C 5.39 g/m*3 2 C 0 km/h
1199 05-01-2021 03:50:00 2 C 5.33 g/m*3 2 C 1.6 km/h
1200 05-01-2021 03:55:00 2 C 5.33 g/m*3 2 C 0 km/h
Sensor: Nr:Datum:Temp:Abs-Feuchte:Windchill:Wind:
Aussen-T/F 1201 05-01-2021 04:00:00 2.1 C 5.37 g/m*3 2.1 C 0 km/h
1202 05-01-2021 04:05:00 2.1 C 5.37 g/m*3 2.1 C 0 km/h
1203 05-01-2021 04:10:00 2.1 C 5.37 g/m*3 2.1 C 0 km/h
1204 05-01-2021 04:15:00 2.1 C 5.37 g/m*3 2.1 C 0 km/h
1205 05-01-2021 04:20:00 2.1 C 5.37 g/m*3 2.1 C 0 km/h
1206 05-01-2021 04:25:00 2.1 C 5.37 g/m*3 2.1 C 0 km/h
1207 05-01-2021 04:30:00 2.1 C 5.37 g/m*3 2.1 C 0 km/h
1208 05-01-2021 04:35:00 2.1 C 5.37 g/m*3 2.1 C 0 km/h
1209 05-01-2021 04:40:00 2.1 C 5.37 g/m*3 2.1 C 0 km/h
1210 05-01-2021 04:45:00 2.1 C 5.37 g/m*3 2.1 C 0 km/h
1211 05-01-2021 04:50:00 2.1 C 5.37 g/m*3 2.1 C 0 km/h
1212 05-01-2021 04:55:00 2.1 C 5.37 g/m*3 2.1 C 0 km/h
1213 05-01-2021 05:00:00 2 C 5.33 g/m*3 2 C 0 km/h
1214 05-01-2021 05:05:00 2 C 5.33 g/m*3 2 C 0 km/h
1215 05-01-2021 05:10:00 2.1 C 5.37 g/m*3 2.1 C 0 km/h
1216 05-01-2021 05:15:00 2.1 C 5.37 g/m*3 2.1 C 0 km/h
1217 05-01-2021 05:20:00 2.1 C 5.37 g/m*3 2.1 C 0 km/h
1218 05-01-2021 05:25:00 2.1 C 5.37 g/m*3 2.1 C 0 km/h
1219 05-01-2021 05:30:00 2.1 C 5.37 g/m*3 2.1 C 0 km/h
1220 05-01-2021 05:35:00 2.1 C 5.37 g/m*3 2.1 C 0 km/h
1221 05-01-2021 05:40:00 2.1 C 5.37 g/m*3 2.1 C 0 km/h
1222 05-01-2021 05:45:00 2.1 C 5.37 g/m*3 2.1 C 0 km/h
1223 05-01-2021 05:50:00 2.1 C 5.37 g/m*3 2.1 C 0 km/h
1224 05-01-2021 05:55:00 2.1 C 5.37 g/m*3 2.1 C 0 km/h
1225 05-01-2021 06:00:00 2.1 C 5.37 g/m*3 2.1 C 0 km/h
Sensor: Nr:Datum:Temp:Abs-Feuchte:Windchill:Wind:
Aussen-T/F 1226 05-01-2021 06:05:00 2.1 C 5.37 g/m*3 2.1 C 0 km/h
1227 05-01-2021 06:10:00 2.1 C 5.37 g/m*3 2.1 C 0 km/h
1228 05-01-2021 06:15:00 2.1 C 5.37 g/m*3 2.1 C 0 km/h
1229 05-01-2021 06:20:00 2.1 C 5.37 g/m*3 2.1 C 0 km/h
1230 05-01-2021 06:25:00 2.1 C 5.37 g/m*3 2.1 C 0 km/h
1231 05-01-2021 06:30:00 2.1 C 5.37 g/m*3 2.1 C 0 km/h
1232 05-01-2021 06:35:00 2.1 C 5.37 g/m*3 2.1 C 0 km/h
1233 05-01-2021 06:40:00 2.1 C 5.37 g/m*3 2.1 C 0 km/h
1234 05-01-2021 06:45:00 2.1 C 5.37 g/m*3 2.1 C 0 km/h
1235 05-01-2021 06:50:00 2.1 C 5.37 g/m*3 2.1 C 0 km/h
1236 05-01-2021 06:55:00 2.1 C 5.37 g/m*3 2.1 C 0 km/h
1237 05-01-2021 07:00:00 2.1 C 5.37 g/m*3 2.1 C 0 km/h
1238 05-01-2021 07:05:00 2.1 C 5.37 g/m*3 2.1 C 0 km/h
1239 05-01-2021 07:10:00 2.1 C 5.37 g/m*3 2.1 C 1.6 km/h
1240 05-01-2021 07:15:00 2.1 C 5.37 g/m*3 2.1 C 0 km/h
1241 05-01-2021 07:20:00 2.1 C 5.37 g/m*3 2.1 C 0 km/h
1242 05-01-2021 07:25:00 2.1 C 5.37 g/m*3 2.1 C 0 km/h
1243 05-01-2021 07:30:00 2.1 C 5.37 g/m*3 2.1 C 0 km/h
1244 05-01-2021 07:35:00 2.1 C 5.37 g/m*3 2.1 C 0 km/h
1245 05-01-2021 07:40:00 2.1 C 5.37 g/m*3 2.1 C 1.6 km/h
1246 05-01-2021 07:45:00 2.1 C 5.37 g/m*3 2.1 C 0 km/h
1247 05-01-2021 07:50:00 2 C 5.33 g/m*3 2 C 0 km/h
1248 05-01-2021 07:55:00 2 C 5.33 g/m*3 2 C 0 km/h
1249 05-01-2021 08:00:00 2 C 5.33 g/m*3 2 C 0 km/h
1250 05-01-2021 08:05:00 2 C 5.33 g/m*3 2 C 0 km/h
Sensor: Nr:Datum:Temp:Abs-Feuchte:Windchill:Wind:
Aussen-T/F 1251 05-01-2021 08:10:00 2 C 5.33 g/m*3 2 C 0 km/h
1252 05-01-2021 08:15:00 2 C 5.33 g/m*3 2 C 0 km/h
1253 05-01-2021 08:20:00 2 C 5.33 g/m*3 2 C 0 km/h
1254 05-01-2021 08:25:00 2 C 5.33 g/m*3 2 C 0 km/h
1255 05-01-2021 08:30:00 2.1 C 5.37 g/m*3 2.1 C 1.6 km/h
1256 05-01-2021 08:35:00 2.1 C 5.37 g/m*3 2.1 C 0 km/h
1257 05-01-2021 08:40:00 2.1 C 5.37 g/m*3 2.1 C 0 km/h
1258 05-01-2021 08:45:00 2.1 C 5.37 g/m*3 2.1 C 0 km/h
1259 05-01-2021 08:50:00 2.1 C 5.37 g/m*3 2.1 C 0 km/h
1260 05-01-2021 08:55:00 2.1 C 5.37 g/m*3 2.1 C 0 km/h
1261 05-01-2021 09:00:00 2.1 C 5.37 g/m*3 2.1 C 0 km/h
1262 05-01-2021 09:05:00 2.1 C 5.37 g/m*3 2.1 C 0 km/h
1263 05-01-2021 09:10:00 2.1 C 5.37 g/m*3 2.1 C 0 km/h
1264 05-01-2021 09:15:00 2.1 C 5.37 g/m*3 2.1 C 0 km/h
1265 05-01-2021 09:20:00 2.1 C 5.37 g/m*3 2.1 C 0 km/h
1266 05-01-2021 09:25:00 2.1 C 5.37 g/m*3 2.1 C 0 km/h
1267 05-01-2021 09:30:00 2.2 C 5.41 g/m*3 2.2 C 0 km/h
1268 05-01-2021 09:35:00 2.2 C 5.41 g/m*3 2.2 C 0 km/h
1269 05-01-2021 09:40:00 2.2 C 5.46 g/m*3 2.2 C 0 km/h
1270 05-01-2021 09:45:00 2.2 C 5.41 g/m*3 2.2 C 0 km/h
1271 05-01-2021 09:50:00 2.2 C 5.41 g/m*3 2.2 C 0 km/h
1272 05-01-2021 09:55:00 2.2 C 5.41 g/m*3 2.2 C 1.6 km/h
1273 05-01-2021 10:00:00 2.2 C 5.41 g/m*3 2.2 C 1.6 km/h
1274 05-01-2021 10:05:00 2.3 C 5.44 g/m*3 2.3 C 1.6 km/h
1275 05-01-2021 10:10:00 2.3 C 5.44 g/m*3 2.3 C 0 km/h
Sensor: Nr:Datum:Temp:Abs-Feuchte:Windchill:Wind:
Aussen-T/F 1276 05-01-2021 10:15:00 2.3 C 5.44 g/m*3 2.3 C 0 km/h
1277 05-01-2021 10:20:00 2.3 C 5.44 g/m*3 2.3 C 0 km/h
1278 05-01-2021 10:25:00 2.3 C 5.44 g/m*3 2.3 C 1.6 km/h
1279 05-01-2021 10:30:00 2.3 C 5.44 g/m*3 2.3 C 0 km/h
1280 05-01-2021 10:35:00 2.4 C 5.48 g/m*3 2.4 C 0 km/h
1281 05-01-2021 10:40:00 2.4 C 5.48 g/m*3 2.4 C 0 km/h
1282 05-01-2021 10:45:00 2.4 C 5.48 g/m*3 2.4 C 3.2 km/h
1283 05-01-2021 10:50:00 2.4 C 5.48 g/m*3 2.4 C 3.2 km/h
1284 05-01-2021 10:55:00 2.5 C 5.52 g/m*3 2.5 C 0 km/h
1285 05-01-2021 11:00:00 2.5 C 5.46 g/m*3 2.5 C 3.2 km/h
1286 05-01-2021 11:05:00 2.6 C 5.5 g/m*3 2.6 C 0 km/h
1287 05-01-2021 11:10:00 2.6 C 5.5 g/m*3 2.6 C 0 km/h
1288 05-01-2021 11:15:00 2.6 C 5.5 g/m*3 2.6 C 0 km/h
1289 05-01-2021 11:20:00 2.6 C 5.5 g/m*3 2.6 C 1.6 km/h
1290 05-01-2021 11:25:00 2.6 C 5.5 g/m*3 2.6 C 1.6 km/h
1291 05-01-2021 11:30:00 2.7 C 5.48 g/m*3 2.7 C 0 km/h
1292 05-01-2021 11:35:00 2.7 C 5.48 g/m*3 2.7 C 0 km/h
1293 05-01-2021 11:40:00 2.7 C 5.48 g/m*3 2.7 C 0 km/h
1294 05-01-2021 11:45:00 2.7 C 5.48 g/m*3 2.7 C 1.6 km/h
1295 05-01-2021 11:50:00 2.8 C 5.46 g/m*3 2.8 C 1.6 km/h
1296 05-01-2021 11:55:00 2.8 C 5.51 g/m*3 2.8 C 4.8 km/h
1297 05-01-2021 12:00:00 2.8 C 5.46 g/m*3 2.8 C 4.8 km/h
1298 05-01-2021 12:05:00 2.8 C 5.46 g/m*3 2.8 C 4.8 km/h
1299 05-01-2021 12:10:00 2.9 C 5.49 g/m*3 2.9 C 3.2 km/h
1300 05-01-2021 12:15:00 2.9 C 5.49 g/m*3 2.9 C 3.2 km/h
Sensor: Nr:Datum:Temp:Abs-Feuchte:Windchill:Wind:
Aussen-T/F 1301 05-01-2021 12:20:00 2.9 C 5.49 g/m*3 2.9 C 1.6 km/h
1302 05-01-2021 12:25:00 2.9 C 5.49 g/m*3 2.9 C 3.2 km/h
1303 05-01-2021 12:30:00 2.9 C 5.49 g/m*3 2.9 C 3.2 km/h
1304 05-01-2021 12:35:00 2.9 C 5.49 g/m*3 1.17 C 6.4 km/h
1305 05-01-2021 12:40:00 2.9 C 5.43 g/m*3 0.64 C 8.1 km/h
1306 05-01-2021 12:45:00 2.9 C 5.49 g/m*3 1.17 C 6.4 km/h
1307 05-01-2021 12:50:00 2.9 C 5.49 g/m*3 2.9 C 4.8 km/h
1308 05-01-2021 12:55:00 2.9 C 5.49 g/m*3 2.9 C 4.8 km/h
1309 05-01-2021 13:00:00 2.9 C 5.49 g/m*3 2.9 C 3.2 km/h
1310 05-01-2021 13:05:00 2.9 C 5.49 g/m*3 2.9 C 0 km/h
1311 05-01-2021 13:10:00 3 C 5.53 g/m*3 3 C 0 km/h
1312 05-01-2021 13:15:00 3 C 5.53 g/m*3 3 C 0 km/h
1313 05-01-2021 13:20:00 3 C 5.53 g/m*3 3 C 0 km/h
1314 05-01-2021 13:25:00 3 C 5.53 g/m*3 3 C 0 km/h
1315 05-01-2021 13:30:00 3.1 C 5.57 g/m*3 3.1 C 0 km/h
1316 05-01-2021 13:35:00 3.1 C 5.57 g/m*3 3.1 C 0 km/h
1317 05-01-2021 13:40:00 3.1 C 5.57 g/m*3 3.1 C 0 km/h
1318 05-01-2021 13:45:00 3.1 C 5.57 g/m*3 3.1 C 0 km/h
1319 05-01-2021 13:50:00 3.1 C 5.57 g/m*3 3.1 C 0 km/h
1320 05-01-2021 13:55:00 3.1 C 5.57 g/m*3 3.1 C 0 km/h
1321 05-01-2021 14:00:00 3.2 C 5.6 g/m*3 3.2 C 0 km/h
1322 05-01-2021 14:05:00 3.2 C 5.6 g/m*3 3.2 C 0 km/h
1323 05-01-2021 14:10:00 3.2 C 5.6 g/m*3 3.2 C 0 km/h
1324 05-01-2021 14:15:00 3.2 C 5.6 g/m*3 3.2 C 0 km/h
1325 05-01-2021 14:20:00 3.2 C 5.6 g/m*3 3.2 C 0 km/h
Sensor: Nr:Datum:Temp:Abs-Feuchte:Windchill:Wind:
Aussen-T/F 1326 05-01-2021 14:25:00 3.2 C 5.6 g/m*3 3.2 C 0 km/h
1327 05-01-2021 14:30:00 3.3 C 5.64 g/m*3 3.3 C 0 km/h
1328 05-01-2021 14:35:00 3.3 C 5.64 g/m*3 3.3 C 0 km/h
1329 05-01-2021 14:40:00 3.3 C 5.64 g/m*3 3.3 C 0 km/h
1330 05-01-2021 14:45:00 3.3 C 5.64 g/m*3 3.3 C 0 km/h
1331 05-01-2021 14:50:00 3.3 C 5.64 g/m*3 3.3 C 0 km/h
1332 05-01-2021 14:55:00 3.3 C 5.64 g/m*3 3.3 C 0 km/h
1333 05-01-2021 15:00:00 3.3 C 5.64 g/m*3 3.3 C 0 km/h
1334 05-01-2021 15:05:00 3.3 C 5.64 g/m*3 3.3 C 0 km/h
1335 05-01-2021 15:10:00 3.3 C 5.64 g/m*3 3.3 C 0 km/h
1336 05-01-2021 15:15:00 3.3 C 5.64 g/m*3 3.3 C 0 km/h
1337 05-01-2021 15:20:00 3.3 C 5.64 g/m*3 3.3 C 0 km/h
1338 05-01-2021 15:25:00 3.3 C 5.64 g/m*3 3.3 C 0 km/h
1339 05-01-2021 15:30:00 3.3 C 5.64 g/m*3 3.3 C 0 km/h
1340 05-01-2021 15:35:00 3.3 C 5.64 g/m*3 3.3 C 0 km/h
1341 05-01-2021 15:40:00 3.3 C 5.64 g/m*3 3.3 C 0 km/h
1342 05-01-2021 15:45:00 3.3 C 5.64 g/m*3 3.3 C 0 km/h
1343 05-01-2021 15:50:00 3.3 C 5.64 g/m*3 3.3 C 0 km/h
1344 05-01-2021 15:55:00 3.3 C 5.64 g/m*3 3.3 C 0 km/h
1345 05-01-2021 16:00:00 3.3 C 5.64 g/m*3 3.3 C 0 km/h
1346 05-01-2021 16:05:00 3.3 C 5.64 g/m*3 3.3 C 0 km/h
1347 05-01-2021 16:10:00 3.3 C 5.64 g/m*3 3.3 C 0 km/h
1348 05-01-2021 16:15:00 3.3 C 5.64 g/m*3 3.3 C 0 km/h
1349 05-01-2021 16:20:00 3.2 C 5.66 g/m*3 3.2 C 0 km/h
1350 05-01-2021 16:25:00 3.2 C 5.6 g/m*3 3.2 C 0 km/h
Sensor: Nr:Datum:Temp:Abs-Feuchte:Windchill:Wind:
Aussen-T/F 1351 05-01-2021 16:30:00 3.2 C 5.6 g/m*3 3.2 C 0 km/h
1352 05-01-2021 16:35:00 3.2 C 5.6 g/m*3 3.2 C 0 km/h
1353 05-01-2021 16:40:00 3.2 C 5.6 g/m*3 3.2 C 0 km/h
1354 05-01-2021 16:45:00 3.1 C 5.57 g/m*3 3.1 C 0 km/h
1355 05-01-2021 16:50:00 3.1 C 5.57 g/m*3 3.1 C 0 km/h
1356 05-01-2021 16:55:00 3.1 C 5.57 g/m*3 3.1 C 0 km/h
1357 05-01-2021 17:00:00 3.1 C 5.57 g/m*3 3.1 C 0 km/h
1358 05-01-2021 17:05:00 3.1 C 5.57 g/m*3 3.1 C 0 km/h
1359 05-01-2021 17:10:00 3.1 C 5.57 g/m*3 3.1 C 0 km/h
1360 05-01-2021 17:15:00 3.1 C 5.63 g/m*3 3.1 C 0 km/h
1361 05-01-2021 17:20:00 3.1 C 5.63 g/m*3 3.1 C 0 km/h
1362 05-01-2021 17:25:00 3.1 C 5.63 g/m*3 3.1 C 0 km/h
1363 05-01-2021 17:30:00 3 C 5.59 g/m*3 3 C 0 km/h
1364 05-01-2021 17:35:00 3 C 5.59 g/m*3 3 C 0 km/h
1365 05-01-2021 17:40:00 3 C 5.59 g/m*3 3 C 0 km/h
1366 05-01-2021 17:45:00 3 C 5.59 g/m*3 3 C 0 km/h
1367 05-01-2021 17:50:00 3 C 5.59 g/m*3 3 C 0 km/h
1368 05-01-2021 17:55:00 3 C 5.59 g/m*3 3 C 0 km/h
1369 05-01-2021 18:00:00 3 C 5.59 g/m*3 3 C 0 km/h
1370 05-01-2021 18:05:00 2.9 C 5.55 g/m*3 2.9 C 0 km/h
1371 05-01-2021 18:10:00 2.9 C 5.55 g/m*3 2.9 C 0 km/h
1372 05-01-2021 18:15:00 2.9 C 5.55 g/m*3 2.9 C 0 km/h
1373 05-01-2021 18:20:00 2.9 C 5.55 g/m*3 2.9 C 0 km/h
1374 05-01-2021 18:25:00 2.9 C 5.55 g/m*3 2.9 C 0 km/h
1375 05-01-2021 18:30:00 2.9 C 5.55 g/m*3 2.9 C 0 km/h
Sensor: Nr:Datum:Temp:Abs-Feuchte:Windchill:Wind:
Aussen-T/F 1376 05-01-2021 18:35:00 2.9 C 5.55 g/m*3 2.9 C 0 km/h
1377 05-01-2021 18:40:00 2.9 C 5.55 g/m*3 2.9 C 0 km/h
1378 05-01-2021 18:45:00 2.9 C 5.55 g/m*3 2.9 C 0 km/h
1379 05-01-2021 18:50:00 2.9 C 5.61 g/m*3 2.9 C 0 km/h
1380 05-01-2021 18:55:00 2.9 C 5.61 g/m*3 2.9 C 0 km/h
1381 05-01-2021 19:00:00 2.9 C 5.61 g/m*3 2.9 C 0 km/h
1382 05-01-2021 19:05:00 2.9 C 5.61 g/m*3 2.9 C 0 km/h
1383 05-01-2021 19:10:00 2.9 C 5.61 g/m*3 2.9 C 0 km/h
1384 05-01-2021 19:15:00 2.9 C 5.61 g/m*3 2.9 C 0 km/h
1385 05-01-2021 19:20:00 2.9 C 5.61 g/m*3 2.9 C 0 km/h
1386 05-01-2021 19:25:00 2.9 C 5.61 g/m*3 2.9 C 0 km/h
1387 05-01-2021 19:30:00 2.9 C 5.61 g/m*3 2.9 C 0 km/h
1388 05-01-2021 19:35:00 2.9 C 5.61 g/m*3 2.9 C 0 km/h
1389 05-01-2021 19:40:00 2.9 C 5.61 g/m*3 2.9 C 0 km/h
1390 05-01-2021 19:45:00 2.9 C 5.61 g/m*3 2.9 C 0 km/h
1391 05-01-2021 19:50:00 2.9 C 5.61 g/m*3 2.9 C 0 km/h
1392 05-01-2021 19:55:00 2.9 C 5.61 g/m*3 2.9 C 0 km/h
1393 05-01-2021 20:00:00 2.9 C 5.61 g/m*3 2.9 C 0 km/h
1394 05-01-2021 20:05:00 2.9 C 5.61 g/m*3 2.9 C 0 km/h
1395 05-01-2021 20:10:00 2.9 C 5.61 g/m*3 2.9 C 0 km/h
1396 05-01-2021 20:15:00 2.9 C 5.61 g/m*3 2.9 C 0 km/h
1397 05-01-2021 20:20:00 2.9 C 5.61 g/m*3 2.9 C 0 km/h
1398 05-01-2021 20:25:00 2.9 C 5.61 g/m*3 2.9 C 0 km/h
1399 05-01-2021 20:30:00 2.9 C 5.61 g/m*3 2.9 C 0 km/h
1400 05-01-2021 20:35:00 2.9 C 5.61 g/m*3 2.9 C 0 km/h
Sensor: Nr:Datum:Temp:Abs-Feuchte:Windchill:Wind:
Aussen-T/F 1401 05-01-2021 20:40:00 2.9 C 5.61 g/m*3 2.9 C 0 km/h
1402 05-01-2021 20:45:00 2.9 C 5.61 g/m*3 2.9 C 0 km/h
1403 05-01-2021 20:50:00 2.9 C 5.61 g/m*3 2.9 C 0 km/h
1404 05-01-2021 20:55:00 2.9 C 5.61 g/m*3 2.9 C 0 km/h
1405 05-01-2021 21:00:00 2.9 C 5.61 g/m*3 2.9 C 0 km/h
1406 05-01-2021 21:05:00 2.9 C 5.61 g/m*3 2.9 C 0 km/h
1407 05-01-2021 21:10:00 2.9 C 5.61 g/m*3 2.9 C 0 km/h
1408 05-01-2021 21:15:00 2.9 C 5.61 g/m*3 2.9 C 0 km/h
1409 05-01-2021 21:20:00 2.9 C 5.61 g/m*3 2.9 C 0 km/h
1410 05-01-2021 21:25:00 2.9 C 5.61 g/m*3 2.9 C 0 km/h
1411 05-01-2021 21:30:00 2.9 C 5.61 g/m*3 2.9 C 0 km/h
1412 05-01-2021 21:35:00 2.9 C 5.61 g/m*3 2.9 C 0 km/h
1413 05-01-2021 21:40:00 2.9 C 5.61 g/m*3 2.9 C 0 km/h
1414 05-01-2021 21:45:00 2.9 C 5.61 g/m*3 2.9 C 0 km/h
1415 05-01-2021 21:50:00 2.9 C 5.61 g/m*3 2.9 C 0 km/h
1416 05-01-2021 21:55:00 2.9 C 5.61 g/m*3 2.9 C 0 km/h
1417 05-01-2021 22:00:00 2.9 C 5.61 g/m*3 2.9 C 0 km/h
1418 05-01-2021 22:05:00 2.9 C 5.61 g/m*3 2.9 C 0 km/h
1419 05-01-2021 22:10:00 2.9 C 5.61 g/m*3 2.9 C 0 km/h
1420 05-01-2021 22:15:00 2.9 C 5.61 g/m*3 2.9 C 0 km/h
1421 05-01-2021 22:20:00 2.8 C 5.57 g/m*3 2.8 C 0 km/h
1422 05-01-2021 22:25:00 2.8 C 5.57 g/m*3 2.8 C 0 km/h
1423 05-01-2021 22:30:00 2.8 C 5.57 g/m*3 2.8 C 0 km/h
1424 05-01-2021 22:35:00 2.7 C 5.54 g/m*3 2.7 C 0 km/h
1425 05-01-2021 22:40:00 2.6 C 5.5 g/m*3 2.6 C 0 km/h
Sensor: Nr:Datum:Temp:Abs-Feuchte:Windchill:Wind:
Aussen-T/F 1426 05-01-2021 22:45:00 2.4 C 5.37 g/m*3 2.4 C 0 km/h
1427 05-01-2021 22:50:00 2.3 C 5.33 g/m*3 2.3 C 0 km/h
1428 05-01-2021 22:55:00 2.2 C 5.35 g/m*3 2.2 C 0 km/h
1429 05-01-2021 23:00:00 2.2 C 5.35 g/m*3 2.2 C 0 km/h
1430 05-01-2021 23:05:00 2.2 C 5.35 g/m*3 2.2 C 0 km/h
1431 05-01-2021 23:10:00 2.2 C 5.35 g/m*3 2.2 C 0 km/h
1432 05-01-2021 23:15:00 2.2 C 5.35 g/m*3 2.2 C 0 km/h
1433 05-01-2021 23:20:00 2.3 C 5.39 g/m*3 2.3 C 0 km/h
1434 05-01-2021 23:25:00 2.3 C 5.39 g/m*3 2.3 C 0 km/h
1435 05-01-2021 23:30:00 2.4 C 5.42 g/m*3 2.4 C 3.2 km/h
1436 05-01-2021 23:35:00 2.4 C 5.42 g/m*3 2.4 C 0 km/h
1437 05-01-2021 23:40:00 2.5 C 5.52 g/m*3 2.5 C 0 km/h
1438 05-01-2021 23:45:00 2.5 C 5.52 g/m*3 2.5 C 0 km/h
1439 05-01-2021 23:50:00 2.6 C 5.56 g/m*3 2.6 C 0 km/h
1440 05-01-2021 23:55:00 2.6 C 5.56 g/m*3 2.6 C 0 km/h

Legende:
   Min
   Max


Maximal/Minimal-Werte vom 01.01.2021 - 05.01.2021

Sensor Min Max Avg
Temp
(Aussen-T/F)
0.3 °C
02-01-2021  04:25:00
3.8 °C
03-01-2021  14:30:00
2.05 °C
Abs-Feuchte
(Aussen-T/F)
4.78 g/m*3
01-01-2021  21:55:00
5.81 g/m*3
01-01-2021  11:20:00
5.29 g/m*3
Windchill
(Aussen-T/F)
-1.84 C
02-01-2021  05:30:00
3.8 C
03-01-2021  14:35:00
2 C

Die Daten stammen von einer Davis Vantage Pro 2 Wetter-Station und werden unter Linux mit der Software wview2wettercgi und aufbereitet. Alle Angaben erfolgen ohne Gewähr für ihre Vollständigkeit oder Richtigkeit.
Kontakt: Rainer Krienke krienke@uni-koblenz.de . Meine Webseiten an der Uni Koblenz oder privat.
Version: $Revision: 0.78 $